Time,TemperatureF,DewpointF,PressureIn,WindDirection,WindDirectionDegrees,WindSpeedMPH,WindSpeedGustMPH,Humidity,HourlyPrecipIn,Conditions,Clouds,dailyrainin,SoftwareType,DateUTC
2013-01-18 01:00:00,144.1,99.9,30.27,North,1,8.3,12.1,97,0.00,,SKC,0.00,VWS V14.01,2013-01-18 06:00:00,
2013-01-18 01:01:00,149.5,99.9,30.27,West,281,0.0,2.5,100,0.00,,SKC,0.00,VWS V14.01,2013-01-18 06:01:00,
2013-01-18 01:02:00,149.4,99.9,30.27,West,281,0.0,2.5,100,0.00,,SKC,0.00,VWS V14.01,2013-01-18 06:02:00,
2013-01-18 01:03:00,149.4,99.9,30.27,West,281,0.0,2.5,100,0.00,,SKC,0.00,VWS V14.01,2013-01-18 06:03:00,
2013-01-18 01:04:00,149.4,99.9,30.27,West,281,0.0,2.5,100,0.00,,SKC,0.00,VWS V14.01,2013-01-18 06:04:00,
2013-01-18 01:05:00,144.2,99.9,30.26,North,350,8.5,9.9,97,0.00,,SKC,0.00,VWS V14.01,2013-01-18 06:05:00,
2013-01-18 01:06:00,149.4,99.9,30.27,West,281,0.0,2.5,100,0.00,,SKC,0.00,VWS V14.01,2013-01-18 06:06:00,
2013-01-18 01:07:00,149.4,99.9,30.27,West,281,0.0,2.5,100,0.00,,SKC,0.00,VWS V14.01,2013-01-18 06:07:00,
2013-01-18 01:08:00,149.4,99.9,30.27,West,281,0.0,2.5,100,0.00,,SKC,0.00,VWS V14.01,2013-01-18 06:08:00,
2013-01-18 01:09:00,149.4,99.9,30.27,West,281,0.0,2.5,100,0.00,,SKC,0.00,VWS V14.01,2013-01-18 06:09:00,
2013-01-18 01:10:00,144.2,99.9,30.27,North,350,10.9,12.0,97,0.00,,SKC,0.00,VWS V14.01,2013-01-18 06:10:00,
2013-01-18 01:11:00,144.2,99.9,30.27,NE,39,9.2,11.7,97,0.00,,SKC,0.00,VWS V14.01,2013-01-18 06:11:00,
2013-01-18 01:12:00,149.4,99.9,30.27,West,281,0.0,2.5,100,0.00,,SKC,0.00,VWS V14.01,2013-01-18 06:12:00,
2013-01-18 01:13:00,149.4,99.9,30.27,West,281,0.0,2.5,100,0.00,,SKC,0.00,VWS V14.01,2013-01-18 06:13:00,
2013-01-18 01:14:00,149.4,99.9,30.27,West,281,0.0,2.5,100,0.00,,SKC,0.00,VWS V14.01,2013-01-18 06:14:00,
2013-01-18 01:15:00,144.2,99.9,30.27,NE,45,7.8,13.9,97,0.00,,SKC,0.00,VWS V14.01,2013-01-18 06:15:00,
2013-01-18 01:16:00,144.2,99.9,30.27,NNE,14,5.2,7.9,97,0.00,,SKC,0.00,VWS V14.01,2013-01-18 06:16:00,
2013-01-18 01:17:00,149.4,99.9,30.27,West,281,0.0,2.5,100,0.00,,SKC,0.00,VWS V14.01,2013-01-18 06:17:00,
2013-01-18 01:18:00,149.5,99.9,30.27,West,281,0.0,2.5,100,0.00,,SKC,0.00,VWS V14.01,2013-01-18 06:18:00,
2013-01-18 01:19:00,149.4,99.9,30.27,West,281,0.0,2.5,100,0.00,,SKC,0.00,VWS V14.01,2013-01-18 06:19:00,
2013-01-18 01:20:00,144.2,99.9,30.27,North,7,7.6,9.8,97,0.00,,SKC,0.00,VWS V14.01,2013-01-18 06:20:00,
2013-01-18 01:21:00,144.3,99.9,30.27,NE,44,8.0,10.7,97,0.00,,SKC,0.00,VWS V14.01,2013-01-18 06:21:00,
2013-01-18 01:22:00,149.4,99.9,30.27,West,281,0.0,2.5,100,0.00,,SKC,0.00,VWS V14.01,2013-01-18 06:22:00,
2013-01-18 01:23:00,149.5,99.9,30.27,West,281,0.0,2.5,100,0.00,,SKC,0.00,VWS V14.01,2013-01-18 06:23:00,
2013-01-18 01:24:00,149.4,99.9,30.27,West,281,0.0,2.5,100,0.00,,SKC,0.00,VWS V14.01,2013-01-18 06:24:00,
2013-01-18 01:25:00,144.2,99.9,30.27,North,10,12.9,12.9,97,0.00,,SKC,0.00,VWS V14.01,2013-01-18 06:25:00,
2013-01-18 01:26:00,144.3,99.9,30.27,NE,48,9.7,11.1,97,0.00,,SKC,0.00,VWS V14.01,2013-01-18 06:26:00,
2013-01-18 01:27:00,149.4,99.9,30.27,NW,314,1.7,3.4,100,0.00,,SKC,0.00,VWS V14.01,2013-01-18 06:27:00,
2013-01-18 01:28:00,149.5,99.9,30.27,NW,308,0.0,3.4,100,0.00,,SKC,0.00,VWS V14.01,2013-01-18 06:28:00,
2013-01-18 01:29:00,149.5,99.9,30.27,NW,308,0.0,3.4,100,0.00,,SKC,0.00,VWS V14.01,2013-01-18 06:29:00,
2013-01-18 01:30:00,144.4,99.9,30.26,NNE,14,7.1,13.4,97,0.00,,SKC,0.00,VWS V14.01,2013-01-18 06:30:00,
2013-01-18 01:31:00,144.3,99.9,30.26,NNE,22,5.4,6.3,97,0.00,,SKC,0.00,VWS V14.01,2013-01-18 06:31:00,
2013-01-18 01:32:00,149.5,99.9,30.27,NW,308,0.0,3.4,100,0.00,,SKC,0.00,VWS V14.01,2013-01-18 06:32:00,
2013-01-18 01:33:00,149.5,99.9,30.27,NW,308,0.0,3.4,100,0.00,,SKC,0.00,VWS V14.01,2013-01-18 06:33:00,
2013-01-18 01:34:00,149.4,99.9,30.27,NNW,338,3.2,4.1,100,0.00,,SKC,0.00,VWS V14.01,2013-01-18 06:34:00,
2013-01-18 01:35:00,144.3,99.9,30.27,North,8,5.7,13.6,97,0.00,,SKC,0.00,VWS V14.01,2013-01-18 06:35:00,
2013-01-18 01:36:00,144.3,99.9,30.27,NNE,30,6.8,7.9,97,0.00,,SKC,0.00,VWS V14.01,2013-01-18 06:36:00,
2013-01-18 01:37:00,149.5,99.9,30.27,NNW,340,2.7,4.6,100,0.00,,SKC,0.00,VWS V14.01,2013-01-18 06:37:00,
2013-01-18 01:38:00,149.4,99.9,30.27,NNW,342,4.6,4.7,100,0.00,,SKC,0.00,VWS V14.01,2013-01-18 06:38:00,
2013-01-18 01:39:00,149.5,99.9,30.27,NNW,345,3.9,4.7,100,0.00,,SKC,0.00,VWS V14.01,2013-01-18 06:39:00,
2013-01-18 01:40:00,149.5,99.9,30.27,NNW,345,2.3,4.7,100,0.00,,SKC,0.00,VWS V14.01,2013-01-18 06:40:00,
2013-01-18 01:41:00,144.3,99.9,30.27,North,11,7.5,8.6,97,0.00,,SKC,0.00,VWS V14.01,2013-01-18 06:41:00,
2013-01-18 01:42:00,149.4,99.9,30.27,North,349,2.7,4.7,100,0.00,,SKC,0.00,VWS V14.01,2013-01-18 06:42:00,
2013-01-18 01:43:00,144.3,99.9,30.27,NNE,22,6.5,6.5,97,0.00,,SKC,0.00,VWS V14.01,2013-01-18 06:43:00,
2013-01-18 01:44:00,149.5,99.9,30.27,North,352,2.9,4.7,100,0.00,,SKC,0.00,VWS V14.01,2013-01-18 06:44:00,
2013-01-18 01:45:00,149.4,99.9,30.26,North,354,3.4,4.7,100,0.00,,SKC,0.00,VWS V14.01,2013-01-18 06:45:00,
2013-01-18 01:46:00,144.3,99.9,30.28,ENE,70,7.7,7.7,97,0.00,,SKC,0.00,VWS V14.01,2013-01-18 06:46:00,
2013-01-18 01:47:00,149.5,99.9,30.26,North,352,3.9,4.7,100,0.00,,SKC,0.00,VWS V14.01,2013-01-18 06:47:00,
2013-01-18 01:48:00,144.3,99.9,30.28,NNE,20,8.9,11.3,97,0.00,,SKC,0.00,VWS V14.01,2013-01-18 06:48:00,
2013-01-18 01:49:00,149.5,99.9,30.26,North,350,1.2,4.7,100,0.00,,SKC,0.00,VWS V14.01,2013-01-18 06:49:00,
2013-01-18 01:50:00,149.4,99.9,30.26,North,352,0.0,4.7,100,0.00,,SKC,0.00,VWS V14.01,2013-01-18 06:50:00,
2013-01-18 01:51:00,144.3,99.9,30.28,NNE,15,6.0,9.3,97,0.00,,SKC,0.00,VWS V14.01,2013-01-18 06:51:00,
2013-01-18 01:52:00,149.5,99.9,30.26,North,4,4.0,5.8,100,0.00,,SKC,0.00,VWS V14.01,2013-01-18 06:52:00,
2013-01-18 01:53:00,144.3,99.9,30.28,NNE,22,5.8,6.1,97,0.00,,SKC,0.00,VWS V14.01,2013-01-18 06:53:00,
2013-01-18 01:54:00,149.5,99.9,30.26,North,3,1.5,5.8,100,0.00,,SKC,0.00,VWS V14.01,2013-01-18 06:54:00,
2013-01-18 01:55:00,149.5,99.9,30.26,North,0,2.2,5.8,100,0.00,,SKC,0.00,VWS V14.01,2013-01-18 06:55:00,
2013-01-18 01:56:00,144.3,99.9,30.28,North,352,11.4,11.6,97,0.00,,SKC,0.00,VWS V14.01,2013-01-18 06:56:00,
2013-01-18 01:57:00,149.4,99.9,30.26,North,4,3.6,5.8,100,0.00,,SKC,0.00,VWS V14.01,2013-01-18 06:57:00,
2013-01-18 01:58:00,144.3,99.9,30.28,NE,41,11.1,13.9,97,0.00,,SKC,0.00,VWS V14.01,2013-01-18 06:58:00,
2013-01-18 01:59:00,149.5,99.9,30.26,North,4,3.5,5.8,100,0.00,,SKC,0.00,VWS V14.01,2013-01-18 06:59:00,
2013-01-18 02:00:00,149.4,99.9,30.26,North,1,4.1,5.8,100,0.00,,SKC,0.00,VWS V14.01,2013-01-18 07:00:00,
2013-01-18 02:01:00,144.4,99.9,30.28,North,10,6.2,12.1,97,0.00,,SKC,0.00,VWS V14.01,2013-01-18 07:01:00,
2013-01-18 02:02:00,144.4,99.9,30.28,NNE,20,8.0,8.0,97,0.00,,SKC,0.00,VWS V14.01,2013-01-18 07:02:00,
2013-01-18 02:03:00,144.3,99.9,30.28,NNE,22,10.0,12.2,97,0.00,,SKC,0.00,VWS V14.01,2013-01-18 07:03:00,
2013-01-18 02:04:00,149.5,99.9,30.26,North,4,4.2,5.8,100,0.00,,SKC,0.00,VWS V14.01,2013-01-18 07:04:00,
2013-01-18 02:05:00,149.5,99.9,30.26,North,6,2.9,5.8,100,0.00,,SKC,0.00,VWS V14.01,2013-01-18 07:05:00,
2013-01-18 02:06:00,144.4,99.9,30.28,NE,37,13.5,14.3,97,0.00,,SKC,0.00,VWS V14.01,2013-01-18 07:06:00,
2013-01-18 02:07:00,144.3,99.9,30.28,NNE,21,8.0,9.4,97,0.00,,SKC,0.00,VWS V14.01,2013-01-18 07:07:00,
2013-01-18 02:08:00,144.4,99.9,30.29,North,7,10.6,14.0,97,0.00,,SKC,0.00,VWS V14.01,2013-01-18 07:08:00,
2013-01-18 02:11:00,144.4,99.9,30.29,NE,39,8.3,9.9,97,0.00,,SKC,0.00,VWS V14.01,2013-01-18 07:11:00,
2013-01-18 02:12:00,144.3,99.9,30.29,NE,38,9.3,11.2,97,0.00,,SKC,0.00,VWS V14.01,2013-01-18 07:12:00,
2013-01-18 02:14:00,144.4,99.9,30.29,North,11,10.4,11.7,97,0.00,,SKC,0.00,VWS V14.01,2013-01-18 07:14:00,
2013-01-18 02:16:00,144.3,99.9,30.29,North,4,13.3,13.3,97,0.00,,SKC,0.00,VWS V14.01,2013-01-18 07:16:00,
2013-01-18 02:17:00,144.3,99.9,30.29,ENE,70,7.9,10.5,97,0.00,,SKC,0.00,VWS V14.01,2013-01-18 07:17:00,
2013-01-18 02:19:00,144.4,99.9,30.29,NE,37,5.5,9.1,97,0.00,,SKC,0.00,VWS V14.01,2013-01-18 07:19:00,
2013-01-18 02:21:00,144.3,99.9,30.29,North,1,6.4,10.3,97,0.00,,SKC,0.00,VWS V14.01,2013-01-18 07:21:00,
2013-01-18 02:22:00,144.3,99.9,30.29,North,7,7.5,7.5,97,0.00,,SKC,0.00,VWS V14.01,2013-01-18 07:22:00,
2013-01-18 02:24:00,144.3,99.9,30.29,North,6,9.1,12.9,97,0.00,,SKC,0.00,VWS V14.01,2013-01-18 07:24:00,
2013-01-18 02:26:00,144.4,99.9,30.29,NNE,20,7.8,10.6,97,0.00,,SKC,0.00,VWS V14.01,2013-01-18 07:26:00,
2013-01-18 02:27:00,144.3,99.9,30.29,NNE,27,5.8,8.3,97,0.00,,SKC,0.00,VWS V14.01,2013-01-18 07:27:00,
2013-01-18 02:29:00,144.3,99.9,30.29,NNE,27,7.5,8.3,97,0.00,,SKC,0.00,VWS V14.01,2013-01-18 07:29:00,
2013-01-18 02:31:00,144.3,99.9,30.29,NE,44,4.1,9.4,97,0.00,,SKC,0.00,VWS V14.01,2013-01-18 07:31:00,
2013-01-18 02:32:00,144.3,99.9,30.29,NE,46,4.6,6.7,97,0.00,,SKC,0.00,VWS V14.01,2013-01-18 07:32:00,
2013-01-18 02:34:00,144.2,99.9,30.30,North,4,9.0,10.7,97,0.00,,SKC,0.00,VWS V14.01,2013-01-18 07:34:00,
2013-01-18 02:37:00,144.2,99.9,30.30,NE,48,6.6,9.7,97,0.00,,SKC,0.00,VWS V14.01,2013-01-18 07:37:00,
2013-01-18 02:39:00,144.3,99.9,30.30,NE,38,6.6,9.4,97,0.00,,SKC,0.00,VWS V14.01,2013-01-18 07:39:00,
2013-01-18 02:42:00,144.2,99.9,30.29,North,11,5.7,8.2,97,0.00,,SKC,0.00,VWS V14.01,2013-01-18 07:42:00,
2013-01-18 02:44:00,144.3,99.9,30.29,NNE,24,5.5,5.7,97,0.00,,SKC,0.00,VWS V14.01,2013-01-18 07:44:00,
2013-01-18 02:47:00,144.3,99.9,30.29,East,84,5.2,5.8,97,0.00,,SKC,0.00,VWS V14.01,2013-01-18 07:47:00,
2013-01-18 02:48:00,144.2,99.9,30.29,NNE,28,7.0,10.6,97,0.00,,SKC,0.00,VWS V14.01,2013-01-18 07:48:00,
2013-01-18 02:49:00,144.2,99.9,30.29,North,353,9.5,10.5,97,0.00,,SKC,0.00,VWS V14.01,2013-01-18 07:49:00,
2013-01-18 02:52:00,144.1,99.9,30.30,NNE,31,5.0,11.0,97,0.00,,SKC,0.00,VWS V14.01,2013-01-18 07:52:00,
2013-01-18 02:53:00,144.1,99.9,30.30,NNE,13,6.2,6.2,97,0.00,,SKC,0.00,VWS V14.01,2013-01-18 07:53:00,
2013-01-18 02:54:00,144.1,99.9,30.30,NNE,27,5.8,7.4,97,0.00,,SKC,0.00,VWS V14.01,2013-01-18 07:54:00,
2013-01-18 02:57:00,144.1,99.9,30.30,NNE,20,6.3,7.9,97,0.00,,SKC,0.00,VWS V14.01,2013-01-18 07:57:00,
2013-01-18 02:58:00,144.1,99.9,30.30,NE,41,7.7,7.7,97,0.00,,SKC,0.00,VWS V14.01,2013-01-18 07:58:00,
2013-01-18 02:59:00,144.2,99.9,30.30,NNE,28,10.3,10.3,98,0.00,,SKC,0.00,VWS V14.01,2013-01-18 07:59:00,
2013-01-18 03:03:00,144.1,99.9,30.30,NE,39,7.0,7.0,98,0.00,,SKC,0.00,VWS V14.01,2013-01-18 08:03:00,
2013-01-18 03:04:00,144.1,99.9,30.30,NE,38,6.5,6.5,98,0.00,,SKC,0.00,VWS V14.01,2013-01-18 08:04:00,
2013-01-18 03:08:00,143.5,99.9,30.30,NE,41,7.3,9.1,98,0.00,,SKC,0.00,VWS V14.01,2013-01-18 08:08:00,
2013-01-18 03:09:00,144.1,99.9,30.30,North,11,11.3,11.7,98,0.00,,SKC,0.00,VWS V14.01,2013-01-18 08:09:00,
2013-01-18 03:13:00,144.1,99.9,30.30,North,7,11.1,14.0,98,0.00,,SKC,0.00,VWS V14.01,2013-01-18 08:13:00,
2013-01-18 03:15:00,144.1,99.9,30.30,NNE,14,7.5,9.3,98,0.00,,SKC,0.00,VWS V14.01,2013-01-18 08:15:00,
2013-01-18 03:18:00,143.5,99.9,30.29,NE,48,4.4,9.0,98,0.00,,SKC,0.00,VWS V14.01,2013-01-18 08:18:00,
2013-01-18 03:20:00,143.5,99.9,30.29,NNE,24,8.9,12.1,98,0.00,,SKC,0.00,VWS V14.01,2013-01-18 08:20:00,
2013-01-18 03:23:00,144.1,99.9,30.29,NE,34,6.0,7.8,98,0.00,,SKC,0.00,VWS V14.01,2013-01-18 08:23:00,
2013-01-18 03:24:00,143.5,99.9,30.29,NNE,13,7.5,8.5,98,0.00,,SKC,0.00,VWS V14.01,2013-01-18 08:24:00,
2013-01-18 03:25:00,143.5,99.9,30.29,NNE,17,8.6,10.0,98,0.00,,SKC,0.00,VWS V14.01,2013-01-18 08:25:00,
2013-01-18 03:28:00,143.5,99.9,30.29,NNE,25,7.6,8.7,98,0.00,,SKC,0.00,VWS V14.01,2013-01-18 08:28:00,
2013-01-18 03:29:00,143.5,99.9,30.30,NNE,32,7.9,7.9,98,0.00,,SKC,0.00,VWS V14.01,2013-01-18 08:29:00,
2013-01-18 03:30:00,144.1,99.9,30.30,NNE,13,6.0,8.5,98,0.00,,SKC,0.00,VWS V14.01,2013-01-18 08:30:00,
2013-01-18 03:33:00,143.5,99.9,30.30,North,11,4.8,8.1,98,0.00,,SKC,0.00,VWS V14.01,2013-01-18 08:33:00,
2013-01-18 03:34:00,143.5,99.9,30.30,NNE,17,5.8,6.2,98,0.00,,SKC,0.00,VWS V14.01,2013-01-18 08:34:00,
2013-01-18 03:35:00,144.1,99.9,30.30,ENE,66,5.9,8.1,98,0.00,,SKC,0.00,VWS V14.01,2013-01-18 08:35:00,
2013-01-18 03:38:00,143.5,99.9,30.30,NNE,27,7.6,9.4,98,0.00,,SKC,0.00,VWS V14.01,2013-01-18 08:38:00,
2013-01-18 03:39:00,143.5,99.9,30.30,NE,38,8.4,8.6,98,0.00,,SKC,0.00,VWS V14.01,2013-01-18 08:39:00,
2013-01-18 03:40:00,143.5,99.9,30.30,North,359,13.6,13.6,98,0.00,,SKC,0.00,VWS V14.01,2013-01-18 08:40:00,
2013-01-18 03:43:00,143.5,99.9,30.30,NNE,17,7.1,9.1,98,0.00,,SKC,0.00,VWS V14.01,2013-01-18 08:43:00,
2013-01-18 03:44:00,143.5,99.9,30.30,NNE,21,5.8,6.5,98,0.00,,SKC,0.00,VWS V14.01,2013-01-18 08:44:00,
2013-01-18 03:45:00,143.5,99.9,30.30,NE,34,7.4,10.4,98,0.00,,SKC,0.00,VWS V14.01,2013-01-18 08:45:00,
2013-01-18 03:48:00,144.1,99.9,30.30,NNE,13,6.3,9.7,98,0.00,,SKC,0.00,VWS V14.01,2013-01-18 08:48:00,
2013-01-18 03:49:00,143.5,99.9,30.30,NNE,14,5.7,6.1,98,0.00,,SKC,0.00,VWS V14.01,2013-01-18 08:49:00,
2013-01-18 03:50:00,143.5,99.9,30.30,NNE,21,4.9,7.1,98,0.00,,SKC,0.00,VWS V14.01,2013-01-18 08:50:00,
2013-01-18 03:53:00,143.5,99.9,30.30,North,353,9.4,10.1,98,0.00,,SKC,0.00,VWS V14.01,2013-01-18 08:53:00,
2013-01-18 03:54:00,144.1,99.9,30.30,NNE,22,6.0,8.0,99,0.00,,SKC,0.00,VWS V14.01,2013-01-18 08:54:00,
2013-01-18 03:55:00,143.5,99.9,30.31,NNE,25,6.8,8.9,99,0.00,,SKC,0.00,VWS V14.01,2013-01-18 08:55:00,
2013-01-18 03:58:00,143.5,99.9,30.31,NNE,24,6.8,7.7,99,0.00,,SKC,0.00,VWS V14.01,2013-01-18 08:58:00,
2013-01-18 03:59:00,143.5,99.9,30.31,NNE,28,9.3,9.3,99,0.00,,SKC,0.00,VWS V14.01,2013-01-18 08:59:00,
2013-01-18 04:00:00,144.1,99.9,30.31,North,1,8.9,13.0,99,0.00,,SKC,0.00,VWS V14.01,2013-01-18 09:00:00,
2013-01-18 04:03:00,144.1,99.9,30.30,NNE,25,7.2,8.2,99,0.00,,SKC,0.00,VWS V14.01,2013-01-18 09:03:00,
2013-01-18 04:04:00,143.5,99.9,30.30,NNE,31,6.8,7.6,99,0.00,,SKC,0.00,VWS V14.01,2013-01-18 09:04:00,
2013-01-18 04:05:00,144.1,99.9,30.30,North,4,8.9,9.6,99,0.00,,SKC,0.00,VWS V14.01,2013-01-18 09:05:00,
2013-01-18 04:08:00,144.1,99.9,30.30,North,10,7.9,10.1,99,0.00,,SKC,0.00,VWS V14.01,2013-01-18 09:08:00,
2013-01-18 04:09:00,144.1,99.9,30.31,North,11,8.2,10.7,99,0.00,,SKC,0.00,VWS V14.01,2013-01-18 09:09:00,
2013-01-18 04:10:00,143.5,99.9,30.31,NNE,18,11.0,11.7,99,0.00,,SKC,0.00,VWS V14.01,2013-01-18 09:10:00,
2013-01-18 04:14:00,144.1,99.9,30.31,NNE,20,6.0,7.3,99,0.00,,SKC,0.00,VWS V14.01,2013-01-18 09:14:00,
2013-01-18 04:15:00,144.1,99.9,30.31,NNE,18,8.9,8.9,99,0.00,,SKC,0.00,VWS V14.01,2013-01-18 09:15:00,
2013-01-18 04:19:00,144.1,99.9,30.31,North,7,6.4,10.7,99,0.00,,SKC,0.00,VWS V14.01,2013-01-18 09:19:00,
2013-01-18 04:20:00,144.1,99.9,30.31,NNE,25,12.1,14.9,99,0.00,,SKC,0.00,VWS V14.01,2013-01-18 09:20:00,
2013-01-18 04:24:00,144.1,99.9,30.31,NNE,32,5.1,11.4,99,0.00,,SKC,0.00,VWS V14.01,2013-01-18 09:24:00,
2013-01-18 04:25:00,144.1,99.9,30.31,NE,48,7.3,9.1,99,0.00,,SKC,0.00,VWS V14.01,2013-01-18 09:25:00,
2013-01-18 04:26:00,144.2,99.9,30.31,North,6,8.8,9.8,99,0.00,,SKC,0.00,VWS V14.01,2013-01-18 09:26:00,
2013-01-18 04:29:00,144.1,99.9,30.31,NNE,30,8.6,10.3,99,0.00,,SKC,0.00,VWS V14.01,2013-01-18 09:29:00,
2013-01-18 04:30:00,144.2,99.9,30.31,NNE,20,8.5,8.5,99,0.00,,SKC,0.00,VWS V14.01,2013-01-18 09:30:00,
2013-01-18 04:31:00,144.1,99.9,30.31,NNE,22,5.1,7.9,99,0.00,,SKC,0.00,VWS V14.01,2013-01-18 09:31:00,
2013-01-18 04:34:00,144.1,99.9,30.31,North,7,9.0,11.0,99,0.00,,SKC,0.00,VWS V14.01,2013-01-18 09:34:00,
2013-01-18 04:35:00,144.1,99.9,30.31,NNE,30,10.4,11.9,99,0.00,,SKC,0.00,VWS V14.01,2013-01-18 09:35:00,
2013-01-18 04:36:00,144.1,99.9,30.31,North,4,8.0,8.5,99,0.00,,SKC,0.00,VWS V14.01,2013-01-18 09:36:00,
2013-01-18 04:39:00,144.2,99.9,30.31,NE,34,6.0,9.6,99,0.00,,SKC,0.00,VWS V14.01,2013-01-18 09:39:00,
2013-01-18 04:40:00,144.2,99.9,30.31,NNE,27,7.6,10.6,99,0.00,,SKC,0.00,VWS V14.01,2013-01-18 09:40:00,
2013-01-18 04:41:00,144.2,99.9,30.31,NNE,15,4.3,10.6,99,0.00,,SKC,0.00,VWS V14.01,2013-01-18 09:41:00,
2013-01-18 04:45:00,144.2,99.9,30.31,North,11,7.7,9.6,100,0.00,,SKC,0.00,VWS V14.01,2013-01-18 09:45:00,
2013-01-18 04:46:00,144.1,99.9,30.31,NNE,18,7.5,8.5,100,0.00,,SKC,0.00,VWS V14.01,2013-01-18 09:46:00,
2013-01-18 04:50:00,144.2,99.9,30.30,NE,34,9.7,9.7,100,0.00,,SKC,0.00,VWS V14.01,2013-01-18 09:50:00,
2013-01-18 04:51:00,144.2,99.9,30.31,NNE,24,12.2,13.1,100,0.00,,SKC,0.00,VWS V14.01,2013-01-18 09:51:00,
2013-01-18 04:55:00,144.2,99.9,30.31,NNE,14,11.5,13.7,100,0.00,,SKC,0.00,VWS V14.01,2013-01-18 09:55:00,
2013-01-18 04:56:00,144.1,99.9,30.31,NNE,22,10.9,10.9,100,0.00,,SKC,0.00,VWS V14.01,2013-01-18 09:56:00,
2013-01-18 05:00:00,144.2,99.9,30.30,North,10,8.9,9.1,100,0.00,,SKC,0.00,VWS V14.01,2013-01-18 10:00:00,
2013-01-18 05:01:00,144.2,99.9,30.30,NE,37,11.1,13.2,100,0.00,,SKC,0.00,VWS V14.01,2013-01-18 10:01:00,
2013-01-18 05:05:00,144.1,99.9,30.31,NE,55,4.2,10.9,100,0.00,,SKC,0.00,VWS V14.01,2013-01-18 10:05:00,
2013-01-18 05:06:00,144.2,99.9,30.31,NE,52,7.7,10.2,100,0.00,,SKC,0.00,VWS V14.01,2013-01-18 10:06:00,
2013-01-18 05:10:00,144.1,99.9,30.30,NNE,13,12.1,13.5,100,0.00,,SKC,0.00,VWS V14.01,2013-01-18 10:10:00,
2013-01-18 05:11:00,144.1,99.9,30.30,NE,44,9.0,10.7,100,0.00,,SKC,0.00,VWS V14.01,2013-01-18 10:11:00,
2013-01-18 05:15:00,144.2,99.9,30.30,NE,34,8.0,8.8,100,0.00,,SKC,0.00,VWS V14.01,2013-01-18 10:15:00,
2013-01-18 05:16:00,144.1,99.9,30.30,NNE,32,9.9,12.4,100,0.00,,SKC,0.00,VWS V14.01,2013-01-18 10:16:00,
2013-01-18 05:17:00,144.2,99.9,30.30,NNE,22,7.6,7.9,100,0.00,,SKC,0.00,VWS V14.01,2013-01-18 10:17:00,
2013-01-18 05:20:00,144.2,99.9,30.30,NNE,17,8.2,16.3,100,0.00,,SKC,0.00,VWS V14.01,2013-01-18 10:20:00,
2013-01-18 05:21:00,144.2,99.9,30.30,NE,44,7.6,13.2,100,0.00,,SKC,0.00,VWS V14.01,2013-01-18 10:21:00,
2013-01-18 05:22:00,144.1,99.9,30.30,NNE,28,9.8,13.6,100,0.00,,SKC,0.00,VWS V14.01,2013-01-18 10:22:00,
2013-01-18 05:26:00,144.1,99.9,30.30,North,7,12.0,12.0,100,0.00,,SKC,0.00,VWS V14.01,2013-01-18 10:26:00,
2013-01-18 05:27:00,144.1,99.9,30.30,NNE,20,18.6,19.8,100,0.00,,SKC,0.00,VWS V14.01,2013-01-18 10:27:00,
2013-01-18 05:31:00,144.2,99.9,30.30,NNE,14,8.3,11.4,100,0.00,,SKC,0.00,VWS V14.01,2013-01-18 10:31:00,
2013-01-18 05:32:00,144.1,99.9,30.30,NNE,24,7.9,9.7,100,0.00,,SKC,0.00,VWS V14.01,2013-01-18 10:32:00,
2013-01-18 05:36:00,144.1,99.9,30.30,NNW,347,7.1,13.0,100,0.00,,SKC,0.00,VWS V14.01,2013-01-18 10:36:00,
2013-01-18 05:37:00,144.2,99.9,30.30,North,1,6.9,6.9,100,0.00,,SKC,0.00,VWS V14.01,2013-01-18 10:37:00,
2013-01-18 05:41:00,144.2,99.9,30.30,NE,34,4.3,10.3,100,0.00,,SKC,0.00,VWS V14.01,2013-01-18 10:41:00,
2013-01-18 05:42:00,144.2,99.9,30.30,NNE,21,11.9,12.6,100,0.00,,SKC,0.00,VWS V14.01,2013-01-18 10:42:00,
2013-01-18 05:46:00,144.1,99.9,30.31,ENE,65,10.6,13.7,100,0.00,,SKC,0.00,VWS V14.01,2013-01-18 10:46:00,
2013-01-18 05:47:00,144.1,99.9,30.31,NNE,31,9.5,10.7,100,0.00,,SKC,0.00,VWS V14.01,2013-01-18 10:47:00,
2013-01-18 05:51:00,144.2,99.9,30.31,NNE,30,7.8,14.6,100,0.00,,SKC,0.00,VWS V14.01,2013-01-18 10:51:00,
2013-01-18 05:52:00,144.2,99.9,30.31,NNE,32,6.8,8.8,100,0.00,,SKC,0.00,VWS V14.01,2013-01-18 10:52:00,
2013-01-18 05:56:00,144.2,99.9,30.30,NNE,28,13.0,13.0,100,0.00,,SKC,0.00,VWS V14.01,2013-01-18 10:56:00,
2013-01-18 05:57:00,144.2,99.9,30.30,NE,53,8.5,14.9,100,0.00,,SKC,0.00,VWS V14.01,2013-01-18 10:57:00,
2013-01-18 06:01:00,144.1,99.9,30.30,NNE,20,12.2,12.6,100,0.00,,SKC,0.00,VWS V14.01,2013-01-18 11:01:00,
2013-01-18 06:02:00,144.1,99.9,30.30,NNE,24,11.5,13.3,100,0.00,,SKC,0.00,VWS V14.01,2013-01-18 11:02:00,
2013-01-18 06:03:00,144.1,99.9,30.30,North,11,12.5,12.5,100,0.00,,SKC,0.00,VWS V14.01,2013-01-18 11:03:00,
2013-01-18 06:07:00,144.1,99.9,30.30,NE,44,8.5,10.3,100,0.00,,SKC,0.00,VWS V14.01,2013-01-18 11:07:00,
2013-01-18 06:08:00,144.1,99.9,30.30,NNE,13,6.9,9.1,100,0.00,,SKC,0.00,VWS V14.01,2013-01-18 11:08:00,
2013-01-18 06:12:00,144.1,99.9,30.30,NNE,25,12.2,14.2,100,0.00,,SKC,0.00,VWS V14.01,2013-01-18 11:12:00,
2013-01-18 06:13:00,144.1,99.9,30.30,NE,34,5.7,7.9,100,0.00,,SKC,0.00,VWS V14.01,2013-01-18 11:13:00,
2013-01-18 06:17:00,144.1,99.9,30.31,North,10,7.8,12.6,100,0.00,,SKC,0.00,VWS V14.01,2013-01-18 11:17:00,
2013-01-18 06:18:00,144.1,99.9,30.30,NNE,27,11.4,11.4,100,0.00,,SKC,0.00,VWS V14.01,2013-01-18 11:18:00,
2013-01-18 06:22:00,144.1,99.9,30.31,NE,38,6.3,9.0,100,0.00,,SKC,0.00,VWS V14.01,2013-01-18 11:22:00,
2013-01-18 06:23:00,144.2,99.9,30.31,NNE,25,11.9,11.9,100,0.00,,SKC,0.00,VWS V14.01,2013-01-18 11:23:00,
2013-01-18 06:27:00,144.2,99.9,30.31,NE,53,5.5,10.3,100,0.00,,SKC,0.00,VWS V14.01,2013-01-18 11:27:00,
2013-01-18 06:28:00,144.1,99.9,30.31,NE,37,13.7,13.7,100,0.00,,SKC,0.00,VWS V14.01,2013-01-18 11:28:00,
2013-01-18 06:32:00,144.1,99.9,30.31,NE,34,5.3,10.8,100,0.00,,SKC,0.00,VWS V14.01,2013-01-18 11:32:00,
2013-01-18 06:33:00,144.1,99.9,30.31,NNE,24,12.7,13.5,100,0.00,,SKC,0.00,VWS V14.01,2013-01-18 11:33:00,
2013-01-18 06:37:00,144.1,99.9,30.31,NNE,27,13.1,13.1,100,0.00,,SKC,0.00,VWS V14.01,2013-01-18 11:37:00,
2013-01-18 06:38:00,144.1,99.9,30.32,NE,52,7.8,10.3,100,0.00,,SKC,0.00,VWS V14.01,2013-01-18 11:38:00,
2013-01-18 06:42:00,144.1,99.9,30.32,NNE,32,8.1,11.6,100,0.00,,SKC,0.00,VWS V14.01,2013-01-18 11:42:00,
2013-01-18 06:43:00,144.1,99.9,30.32,NNE,25,7.6,7.6,100,0.00,,SKC,0.00,VWS V14.01,2013-01-18 11:43:00,
2013-01-18 06:47:00,144.1,99.9,30.32,NE,53,9.5,11.1,100,0.00,,SKC,0.00,VWS V14.01,2013-01-18 11:47:00,
2013-01-18 06:48:00,144.1,99.9,30.32,NE,35,4.8,7.1,100,0.00,,SKC,0.00,VWS V14.01,2013-01-18 11:48:00,
2013-01-18 06:52:00,144.1,99.9,30.33,NNE,24,7.1,8.5,100,0.00,,SKC,0.00,VWS V14.01,2013-01-18 11:52:00,
2013-01-18 06:53:00,144.2,99.9,30.33,North,6,5.8,7.6,100,0.00,,SKC,0.00,VWS V14.01,2013-01-18 11:53:00,
2013-01-18 06:57:00,144.2,99.9,30.33,NE,37,11.3,12.6,100,0.00,,SKC,0.00,VWS V14.01,2013-01-18 11:57:00,
2013-01-18 06:58:00,144.1,99.9,30.33,NE,35,5.0,7.7,100,0.00,,SKC,0.00,VWS V14.01,2013-01-18 11:58:00,
2013-01-18 07:02:00,144.1,99.9,30.33,NNE,20,12.0,15.8,100,0.00,,SKC,0.00,VWS V14.01,2013-01-18 12:02:00,
2013-01-18 07:03:00,144.1,99.9,30.33,NNE,25,6.8,8.8,100,0.00,,SKC,0.00,VWS V14.01,2013-01-18 12:03:00,
2013-01-18 07:07:00,144.1,99.9,30.33,NE,46,5.3,6.1,100,0.00,,SKC,0.00,VWS V14.01,2013-01-18 12:07:00,
2013-01-18 07:08:00,144.1,99.9,30.33,NNE,20,3.8,7.7,100,0.00,,SKC,0.00,VWS V14.01,2013-01-18 12:08:00,
2013-01-18 07:12:00,144.2,99.9,30.33,ENE,58,6.6,8.9,100,0.00,,SKC,0.00,VWS V14.01,2013-01-18 12:12:00,
2013-01-18 07:13:00,144.1,99.9,30.33,NE,49,8.5,9.0,100,0.00,,SKC,0.00,VWS V14.01,2013-01-18 12:13:00,
2013-01-18 07:17:00,144.1,99.9,30.33,ENE,59,3.7,8.5,100,0.00,,SKC,0.00,VWS V14.01,2013-01-18 12:17:00,
2013-01-18 07:18:00,144.1,99.9,30.33,NE,38,5.7,10.0,100,0.00,,SKC,0.00,VWS V14.01,2013-01-18 12:18:00,
2013-01-18 07:22:00,144.2,99.9,30.33,NE,39,6.9,9.8,100,0.00,,SKC,0.00,VWS V14.01,2013-01-18 12:22:00,
2013-01-18 07:23:00,144.1,99.9,30.33,ENE,68,3.8,7.1,100,0.00,,SKC,0.00,VWS V14.01,2013-01-18 12:23:00,
2013-01-18 07:27:00,144.1,99.9,30.33,NE,46,5.6,9.7,100,0.00,,SKC,0.00,VWS V14.01,2013-01-18 12:27:00,
2013-01-18 07:28:00,144.1,99.9,30.33,NE,42,6.8,11.2,100,0.00,,SKC,0.00,VWS V14.01,2013-01-18 12:28:00,
2013-01-18 07:29:00,144.1,99.9,30.33,NE,48,6.8,8.3,100,0.00,,SKC,0.00,VWS V14.01,2013-01-18 12:29:00,
2013-01-18 07:32:00,144.1,99.9,30.33,NE,37,6.3,11.7,100,0.00,,SKC,0.00,VWS V14.01,2013-01-18 12:32:00,
2013-01-18 07:33:00,144.1,99.9,30.33,NNE,24,9.6,11.1,100,0.00,,SKC,0.00,VWS V14.01,2013-01-18 12:33:00,
2013-01-18 07:34:00,144.1,99.9,30.33,NE,44,10.5,11.1,100,0.00,,SKC,0.00,VWS V14.01,2013-01-18 12:34:00,
2013-01-18 07:37:00,144.1,99.9,30.33,North,356,9.2,10.7,100,0.00,,SKC,0.00,VWS V14.01,2013-01-18 12:37:00,
2013-01-18 07:38:00,144.2,99.9,30.34,ENE,69,7.4,11.4,100,0.00,,SKC,0.00,VWS V14.01,2013-01-18 12:38:00,
2013-01-18 07:39:00,144.1,99.9,30.34,NNE,22,11.2,11.2,100,0.00,,SKC,0.00,VWS V14.01,2013-01-18 12:39:00,
2013-01-18 07:43:00,144.2,99.9,30.34,NE,35,11.2,13.8,100,0.00,,SKC,0.00,VWS V14.01,2013-01-18 12:43:00,
2013-01-18 07:44:00,144.1,99.9,30.34,NNE,14,11.1,13.7,100,0.00,,SKC,0.00,VWS V14.01,2013-01-18 12:44:00,
2013-01-18 07:48:00,144.1,99.9,30.34,ENE,58,6.3,11.8,100,0.00,,SKC,0.00,VWS V14.01,2013-01-18 12:48:00,
2013-01-18 07:49:00,144.2,99.9,30.34,NNE,28,8.3,8.7,100,0.00,,SKC,0.00,VWS V14.01,2013-01-18 12:49:00,
2013-01-18 07:53:00,144.1,99.9,30.34,North,3,8.6,11.3,100,0.00,,SKC,0.00,VWS V14.01,2013-01-18 12:53:00,
2013-01-18 07:54:00,144.1,99.9,30.34,NE,35,9.4,10.0,100,0.00,,SKC,0.00,VWS V14.01,2013-01-18 12:54:00,
2013-01-18 07:58:00,144.2,99.9,30.34,North,3,13.0,13.0,100,0.00,,SKC,0.00,VWS V14.01,2013-01-18 12:58:00,
2013-01-18 07:59:00,144.1,99.9,30.34,NNE,28,8.1,12.8,100,0.00,,SKC,0.00,VWS V14.01,2013-01-18 12:59:00,
2013-01-18 08:03:00,144.1,99.9,30.34,North,8,16.4,16.4,100,0.00,,SKC,0.00,VWS V14.01,2013-01-18 13:03:00,
2013-01-18 08:04:00,144.2,99.9,30.34,ENE,77,6.1,12.0,100,0.00,,SKC,0.00,VWS V14.01,2013-01-18 13:04:00,
2013-01-18 08:08:00,144.1,99.9,30.34,ENE,60,8.1,12.1,100,0.00,,SKC,0.00,VWS V14.01,2013-01-18 13:08:00,
2013-01-18 08:09:00,144.2,99.9,30.34,NE,46,9.3,10.6,100,0.00,,SKC,0.00,VWS V14.01,2013-01-18 13:09:00,
2013-01-18 08:13:00,144.1,99.9,30.34,NNE,21,10.0,11.7,100,0.00,,SKC,0.00,VWS V14.01,2013-01-18 13:13:00,
2013-01-18 08:14:00,144.2,99.9,30.34,NE,41,14.0,14.0,100,0.00,,SKC,0.00,VWS V14.01,2013-01-18 13:14:00,
2013-01-18 08:18:00,144.2,99.9,30.34,NNE,21,7.8,10.1,100,0.00,,SKC,0.00,VWS V14.01,2013-01-18 13:18:00,
2013-01-18 08:19:00,144.2,99.9,30.35,NNE,32,9.3,11.1,100,0.00,,SKC,0.00,VWS V14.01,2013-01-18 13:19:00,
2013-01-18 08:20:00,144.2,99.9,30.35,NE,55,7.0,7.4,100,0.00,,SKC,0.00,VWS V14.01,2013-01-18 13:20:00,
2013-01-18 08:23:00,144.2,99.9,30.35,East,84,4.7,9.3,100,0.00,,SKC,0.00,VWS V14.01,2013-01-18 13:23:00,
2013-01-18 08:24:00,144.1,99.9,30.35,NNE,20,11.0,12.8,100,0.00,,SKC,0.00,VWS V14.01,2013-01-18 13:24:00,
2013-01-18 08:25:00,144.2,99.9,30.35,East,93,9.4,11.1,100,0.00,,SKC,0.00,VWS V14.01,2013-01-18 13:25:00,
2013-01-18 08:28:00,144.2,99.9,30.36,NE,44,6.1,13.4,100,0.00,,SKC,0.00,VWS V14.01,2013-01-18 13:28:00,
2013-01-18 08:29:00,144.2,99.9,30.36,East,84,7.8,11.0,100,0.00,,SKC,0.00,VWS V14.01,2013-01-18 13:29:00,
2013-01-18 08:30:00,144.2,99.9,30.36,North,8,11.6,13.3,100,0.00,,SKC,0.00,VWS V14.01,2013-01-18 13:30:00,
2013-01-18 08:33:00,144.2,99.9,30.35,NE,53,11.3,17.0,100,0.00,,SKC,0.00,VWS V14.01,2013-01-18 13:33:00,
2013-01-18 08:34:00,144.2,99.9,30.35,NNE,27,8.8,14.4,100,0.00,,SKC,0.00,VWS V14.01,2013-01-18 13:34:00,
2013-01-18 08:35:00,144.3,99.9,30.35,East,97,10.8,13.0,100,0.00,,SKC,0.00,VWS V14.01,2013-01-18 13:35:00,
2013-01-18 08:38:00,144.2,99.9,30.36,NNE,21,10.6,16.8,100,0.00,,SKC,0.00,VWS V14.01,2013-01-18 13:38:00,
2013-01-18 08:39:00,144.2,99.9,30.36,NE,49,11.6,11.6,100,0.00,,SKC,0.00,VWS V14.01,2013-01-18 13:39:00,
2013-01-18 08:40:00,144.3,99.9,30.36,NNE,20,13.5,15.7,100,0.00,,SKC,0.00,VWS V14.01,2013-01-18 13:40:00,
2013-01-18 08:41:00,144.3,99.9,30.36,NE,52,7.8,7.9,100,0.00,,SKC,0.00,VWS V14.01,2013-01-18 13:41:00,
2013-01-18 08:44:00,144.3,99.9,30.36,ENE,65,9.6,9.6,100,0.00,,SKC,0.00,VWS V14.01,2013-01-18 13:44:00,
2013-01-18 08:45:00,144.2,99.9,30.36,NE,35,16.5,16.5,100,0.00,,SKC,0.00,VWS V14.01,2013-01-18 13:45:00,
2013-01-18 08:46:00,144.3,99.9,30.36,ENE,66,8.6,12.6,100,0.00,,SKC,0.00,VWS V14.01,2013-01-18 13:46:00,
2013-01-18 08:49:00,144.2,99.9,30.36,ESE,104,7.5,12.9,100,0.00,,SKC,0.00,VWS V14.01,2013-01-18 13:49:00,
2013-01-18 08:50:00,144.3,99.9,30.36,NNE,31,11.1,18.1,100,0.00,,SKC,0.00,VWS V14.01,2013-01-18 13:50:00,
2013-01-18 08:51:00,144.3,99.9,30.36,NE,46,7.6,10.2,100,0.00,,SKC,0.00,VWS V14.01,2013-01-18 13:51:00,
2013-01-18 08:54:00,144.4,99.9,30.36,NNE,32,7.3,10.9,100,0.00,,SKC,0.00,VWS V14.01,2013-01-18 13:54:00,
2013-01-18 08:55:00,144.3,99.9,30.36,NE,41,8.1,10.4,100,0.00,,SKC,0.00,VWS V14.01,2013-01-18 13:55:00,
2013-01-18 08:56:00,144.3,99.9,30.36,NE,56,8.9,12.5,100,0.00,,SKC,0.00,VWS V14.01,2013-01-18 13:56:00,
2013-01-18 08:59:00,144.3,99.9,30.36,NE,49,16.0,16.0,100,0.00,,SKC,0.00,VWS V14.01,2013-01-18 13:59:00,
2013-01-18 09:00:00,144.3,99.9,30.37,ENE,60,7.4,10.7,100,0.00,,SKC,0.00,VWS V14.01,2013-01-18 14:00:00,
2013-01-18 09:01:00,144.3,99.9,30.36,ENE,59,10.3,12.1,100,0.00,,SKC,0.00,VWS V14.01,2013-01-18 14:01:00,
2013-01-18 09:04:00,144.3,99.9,30.37,NE,53,5.1,7.1,100,0.00,,SKC,0.00,VWS V14.01,2013-01-18 14:04:00,
2013-01-18 09:05:00,144.3,99.9,30.36,North,11,8.7,14.1,100,0.00,,SKC,0.00,VWS V14.01,2013-01-18 14:05:00,
2013-01-18 09:06:00,144.3,99.9,30.36,NNE,25,8.6,9.2,100,0.00,,SKC,0.00,VWS V14.01,2013-01-18 14:06:00,
2013-01-18 09:09:00,144.4,99.9,30.37,NE,53,12.7,14.3,100,0.00,,SKC,0.00,VWS V14.01,2013-01-18 14:09:00,
2013-01-18 09:10:00,144.4,99.9,30.37,NE,48,16.5,16.5,100,0.00,,SKC,0.00,VWS V14.01,2013-01-18 14:10:00,
2013-01-18 09:11:00,144.3,99.9,30.37,North,349,10.6,12.2,100,0.00,,SKC,0.00,VWS V14.01,2013-01-18 14:11:00,
2013-01-18 09:14:00,144.4,99.9,30.37,NE,49,10.3,16.2,99,0.00,,SKC,0.00,VWS V14.01,2013-01-18 14:14:00,
2013-01-18 09:15:00,144.4,99.9,30.37,ENE,69,5.8,12.9,99,0.00,,SKC,0.00,VWS V14.01,2013-01-18 14:15:00,
2013-01-18 09:16:00,144.4,99.9,30.37,ENE,70,6.2,8.9,99,0.00,,SKC,0.00,VWS V14.01,2013-01-18 14:16:00,
2013-01-18 09:19:00,144.4,99.9,30.37,North,11,13.6,16.3,99,0.00,,SKC,0.00,VWS V14.01,2013-01-18 14:19:00,
2013-01-18 09:20:00,144.4,99.9,30.37,NNE,27,9.9,15.7,99,0.00,,SKC,0.00,VWS V14.01,2013-01-18 14:20:00,
2013-01-18 09:21:00,144.5,99.9,30.37,ENE,62,9.1,9.7,99,0.00,,SKC,0.00,VWS V14.01,2013-01-18 14:21:00,
2013-01-18 09:24:00,144.4,99.9,30.37,ENE,70,7.1,9.4,99,0.00,,SKC,0.00,VWS V14.01,2013-01-18 14:24:00,
2013-01-18 09:25:00,144.4,99.9,30.37,East,80,9.6,10.5,99,0.00,,SKC,0.00,VWS V14.01,2013-01-18 14:25:00,
2013-01-18 09:26:00,144.5,99.9,30.37,NNE,13,9.7,11.2,99,0.00,,SKC,0.00,VWS V14.01,2013-01-18 14:26:00,
2013-01-18 09:30:00,144.4,99.9,30.37,ENE,60,6.8,10.4,99,0.00,,SKC,0.00,VWS V14.01,2013-01-18 14:30:00,
2013-01-18 09:31:00,144.5,99.9,30.37,NE,46,6.3,10.9,98,0.00,,SKC,0.00,VWS V14.01,2013-01-18 14:31:00,
2013-01-18 09:35:00,144.5,99.9,30.37,ENE,59,15.3,15.5,98,0.00,,SKC,0.00,VWS V14.01,2013-01-18 14:35:00,
2013-01-18 09:36:00,144.5,99.9,30.37,NNE,28,11.6,18.1,98,0.00,,SKC,0.00,VWS V14.01,2013-01-18 14:36:00,
2013-01-18 09:40:00,144.5,99.9,30.38,East,84,8.4,8.9,98,0.00,,SKC,0.00,VWS V14.01,2013-01-18 14:40:00,
2013-01-18 09:41:00,145.1,99.9,30.38,East,93,8.0,9.6,98,0.00,,SKC,0.00,VWS V14.01,2013-01-18 14:41:00,
2013-01-18 09:45:00,145.1,99.9,30.37,North,11,11.9,13.7,97,0.00,,SKC,0.00,VWS V14.01,2013-01-18 14:45:00,
2013-01-18 09:46:00,145.1,99.9,30.37,NE,41,7.4,12.2,97,0.00,,SKC,0.00,VWS V14.01,2013-01-18 14:46:00,
2013-01-18 09:50:00,145.2,99.9,30.38,NE,49,12.6,12.6,97,0.00,,SKC,0.00,VWS V14.01,2013-01-18 14:50:00,
2013-01-18 09:51:00,145.2,99.9,30.38,NNE,18,8.8,11.4,97,0.00,,SKC,0.00,VWS V14.01,2013-01-18 14:51:00,
2013-01-18 09:55:00,145.1,99.9,30.38,NE,51,5.6,9.3,97,0.00,,SKC,0.00,VWS V14.01,2013-01-18 14:55:00,
2013-01-18 09:56:00,145.2,99.9,30.38,NNE,22,9.7,10.4,97,0.00,,SKC,0.00,VWS V14.01,2013-01-18 14:56:00,
2013-01-18 10:00:00,145.2,99.9,30.38,ESE,104,7.0,14.2,96,0.00,,SKC,0.00,VWS V14.01,2013-01-18 15:00:00,
2013-01-18 10:01:00,145.2,99.9,30.38,NE,48,4.7,12.9,96,0.00,,SKC,0.00,VWS V14.01,2013-01-18 15:01:00,
2013-01-18 10:02:00,145.2,99.9,30.38,NE,44,6.0,6.0,96,0.00,,SKC,0.00,VWS V14.01,2013-01-18 15:02:00,
2013-01-18 10:05:00,145.2,99.9,30.39,ENE,75,8.8,10.8,96,0.00,,SKC,0.00,VWS V14.01,2013-01-18 15:05:00,
2013-01-18 10:06:00,145.3,99.9,30.39,East,79,10.5,14.1,96,0.00,,SKC,0.00,VWS V14.01,2013-01-18 15:06:00,
2013-01-18 10:07:00,145.2,99.9,30.39,ENE,77,9.3,12.7,96,0.00,,SKC,0.00,VWS V14.01,2013-01-18 15:07:00,
2013-01-18 10:10:00,145.3,99.9,30.39,NE,48,4.6,10.4,95,0.00,,SKC,0.00,VWS V14.01,2013-01-18 15:10:00,
2013-01-18 10:11:00,145.2,99.9,30.39,East,90,4.0,4.3,95,0.00,,SKC,0.00,VWS V14.01,2013-01-18 15:11:00,
2013-01-18 10:12:00,145.2,99.9,30.39,NE,37,7.7,12.1,95,0.00,,SKC,0.00,VWS V14.01,2013-01-18 15:12:00,
2013-01-18 10:16:00,145.3,99.9,30.39,East,79,7.7,10.5,95,0.00,,SKC,0.00,VWS V14.01,2013-01-18 15:16:00,
2013-01-18 10:17:00,145.3,99.9,30.39,ENE,69,7.9,11.2,94,0.00,,SKC,0.00,VWS V14.01,2013-01-18 15:17:00,
2013-01-18 10:21:00,145.5,99.9,30.39,ENE,75,11.0,11.9,94,0.00,,SKC,0.00,VWS V14.01,2013-01-18 15:21:00,
2013-01-18 10:22:00,145.5,99.9,30.39,ENE,60,8.6,9.4,93,0.00,,SKC,0.00,VWS V14.01,2013-01-18 15:22:00,
2013-01-18 10:26:00,145.4,99.9,30.39,ENE,58,10.1,13.0,93,0.00,,SKC,0.00,VWS V14.01,2013-01-18 15:26:00,
2013-01-18 10:27:00,145.4,99.9,30.39,ENE,73,8.3,11.1,93,0.00,,SKC,0.00,VWS V14.01,2013-01-18 15:27:00,
2013-01-18 10:31:00,145.4,99.9,30.39,NE,38,10.3,12.7,93,0.00,,SKC,0.00,VWS V14.01,2013-01-18 15:31:00,
2013-01-18 10:32:00,145.5,99.9,30.39,NE,41,4.4,4.8,93,0.00,,SKC,0.00,VWS V14.01,2013-01-18 15:32:00,
2013-01-18 10:36:00,146.1,99.9,30.39,ENE,66,10.3,11.9,91,0.00,,SKC,0.00,VWS V14.01,2013-01-18 15:36:00,
2013-01-18 10:37:00,145.5,99.9,30.39,NE,37,10.6,13.0,91,0.00,,SKC,0.00,VWS V14.01,2013-01-18 15:37:00,
2013-01-18 10:41:00,145.5,99.9,30.39,NE,53,10.9,13.0,91,0.00,,SKC,0.00,VWS V14.01,2013-01-18 15:41:00,
2013-01-18 10:42:00,146.1,99.9,30.39,ENE,73,6.0,11.6,91,0.00,,SKC,0.00,VWS V14.01,2013-01-18 15:42:00,
2013-01-18 10:46:00,146.1,99.9,30.39,ESE,115,2.9,13.7,90,0.00,,SKC,0.00,VWS V14.01,2013-01-18 15:46:00,
2013-01-18 10:47:00,146.2,99.9,30.39,East,84,9.8,10.9,90,0.00,,SKC,0.00,VWS V14.01,2013-01-18 15:47:00,
2013-01-18 10:51:00,146.1,99.9,30.39,NE,44,12.2,13.9,90,0.00,,SKC,0.00,VWS V14.01,2013-01-18 15:51:00,
2013-01-18 10:52:00,146.1,99.9,30.39,East,79,6.3,10.0,89,0.00,,SKC,0.00,VWS V14.01,2013-01-18 15:52:00,
2013-01-18 10:53:00,146.1,99.9,30.39,ENE,69,8.6,12.1,90,0.00,,SKC,0.00,VWS V14.01,2013-01-18 15:53:00,
2013-01-18 10:56:00,146.2,99.9,30.39,NE,35,11.6,11.6,89,0.00,,SKC,0.00,VWS V14.01,2013-01-18 15:56:00,
2013-01-18 10:57:00,146.2,99.9,30.39,NNE,20,9.0,11.6,89,0.00,,SKC,0.00,VWS V14.01,2013-01-18 15:57:00,
2013-01-18 10:58:00,146.2,99.9,30.38,NE,39,10.9,10.9,89,0.00,,SKC,0.00,VWS V14.01,2013-01-18 15:58:00,
2013-01-18 11:02:00,146.3,99.9,30.39,ENE,72,6.0,9.0,89,0.00,,SKC,0.00,VWS V14.01,2013-01-18 16:02:00,
2013-01-18 11:03:00,146.2,99.9,30.39,East,83,7.8,10.4,89,0.00,,SKC,0.00,VWS V14.01,2013-01-18 16:03:00,
2013-01-18 11:07:00,146.3,99.9,30.39,ESE,120,5.1,8.4,89,0.00,,SKC,0.00,VWS V14.01,2013-01-18 16:07:00,
2013-01-18 11:08:00,146.2,99.9,30.39,NE,44,9.4,12.7,89,0.00,,SKC,0.00,VWS V14.01,2013-01-18 16:08:00,
2013-01-18 11:12:00,146.3,99.9,30.39,ENE,70,9.5,11.7,88,0.00,,SKC,0.00,VWS V14.01,2013-01-18 16:12:00,
2013-01-18 11:13:00,146.3,99.9,30.38,ENE,63,7.0,10.6,87,0.00,,SKC,0.00,VWS V14.01,2013-01-18 16:13:00,
2013-01-18 11:17:00,146.4,99.9,30.38,North,4,4.5,6.6,88,0.00,,SKC,0.00,VWS V14.01,2013-01-18 16:17:00,
2013-01-18 11:18:00,146.4,99.9,30.38,ENE,69,7.5,12.1,87,0.00,,SKC,0.00,VWS V14.01,2013-01-18 16:18:00,
2013-01-18 11:22:00,146.4,99.9,30.38,East,91,5.3,8.0,87,0.00,,SKC,0.00,VWS V14.01,2013-01-18 16:22:00,
2013-01-18 11:23:00,146.4,99.9,30.38,ENE,58,10.9,12.4,87,0.00,,SKC,0.00,VWS V14.01,2013-01-18 16:23:00,
2013-01-18 11:27:00,146.4,99.9,30.38,NE,52,5.0,8.1,86,0.00,,SKC,0.00,VWS V14.01,2013-01-18 16:27:00,
2013-01-18 11:28:00,146.5,99.9,30.38,NE,51,7.3,7.3,86,0.00,,SKC,0.00,VWS V14.01,2013-01-18 16:28:00,
2013-01-18 11:32:00,146.5,99.9,30.38,ENE,66,5.7,10.3,86,0.00,,SKC,0.00,VWS V14.01,2013-01-18 16:32:00,
2013-01-18 11:33:00,147.6,99.9,30.38,NE,48,4.6,9.7,86,0.00,,SKC,0.00,VWS V14.01,2013-01-18 16:33:00,
2013-01-18 11:37:00,147.6,99.9,30.38,NE,48,8.1,12.3,86,0.00,,SKC,0.00,VWS V14.01,2013-01-18 16:37:00,
2013-01-18 11:38:00,147.6,99.9,30.38,NNE,25,3.9,6.6,86,0.00,,SKC,0.00,VWS V14.01,2013-01-18 16:38:00,
2013-01-18 11:39:00,147.6,99.9,30.38,ENE,68,5.5,8.6,86,0.00,,SKC,0.00,VWS V14.01,2013-01-18 16:39:00,
2013-01-18 11:42:00,147.6,99.9,30.38,ENE,76,10.6,10.7,85,0.00,,SKC,0.00,VWS V14.01,2013-01-18 16:42:00,
2013-01-18 11:43:00,147.6,99.9,30.38,NE,55,4.7,8.1,85,0.00,,SKC,0.00,VWS V14.01,2013-01-18 16:43:00,
2013-01-18 11:44:00,147.6,99.9,30.38,ENE,63,3.8,4.7,85,0.00,,SKC,0.00,VWS V14.01,2013-01-18 16:44:00,
2013-01-18 11:47:00,147.6,99.9,30.38,ESE,105,6.2,7.1,85,0.00,,SKC,0.00,VWS V14.01,2013-01-18 16:47:00,
2013-01-18 11:48:00,147.6,99.9,30.37,East,83,4.4,10.5,84,0.00,,SKC,0.00,VWS V14.01,2013-01-18 16:48:00,
2013-01-18 11:49:00,147.6,99.9,30.38,East,86,6.3,7.3,84,0.00,,SKC,0.00,VWS V14.01,2013-01-18 16:49:00,
2013-01-18 11:52:00,147.6,99.9,30.38,NE,56,5.0,8.7,84,0.00,,SKC,0.00,VWS V14.01,2013-01-18 16:52:00,
2013-01-18 11:53:00,147.6,99.9,30.37,East,90,5.2,8.5,84,0.00,,SKC,0.00,VWS V14.01,2013-01-18 16:53:00,
2013-01-18 11:54:00,147.6,99.9,30.37,NE,42,5.0,7.8,84,0.00,,SKC,0.00,VWS V14.01,2013-01-18 16:54:00,
2013-01-18 11:57:00,147.6,99.9,30.37,East,82,6.7,6.7,84,0.00,,SKC,0.00,VWS V14.01,2013-01-18 16:57:00,
2013-01-18 11:58:00,147.6,99.9,30.37,East,91,4.2,7.5,84,0.00,,SKC,0.00,VWS V14.01,2013-01-18 16:58:00,
2013-01-18 11:59:00,147.6,99.9,30.37,North,8,6.5,9.4,84,0.00,,SKC,0.00,VWS V14.01,2013-01-18 16:59:00,
2013-01-18 12:02:00,147.6,99.9,30.37,East,93,4.4,9.2,82,0.00,,SKC,0.00,VWS V14.01,2013-01-18 17:02:00,
2013-01-18 12:03:00,147.6,99.9,30.37,East,86,3.1,5.5,83,0.00,,SKC,0.00,VWS V14.01,2013-01-18 17:03:00,
2013-01-18 12:04:00,147.6,99.9,30.37,NNE,20,10.2,10.4,82,0.00,,SKC,0.00,VWS V14.01,2013-01-18 17:04:00,
2013-01-18 12:07:00,147.6,99.9,30.37,NE,49,5.2,6.8,83,0.00,,SKC,0.00,VWS V14.01,2013-01-18 17:07:00,
2013-01-18 12:08:00,147.6,99.9,30.37,ENE,69,6.6,6.6,83,0.00,,SKC,0.00,VWS V14.01,2013-01-18 17:08:00,
2013-01-18 12:09:00,147.6,99.9,30.37,ENE,65,6.3,9.0,82,0.00,,SKC,0.00,VWS V14.01,2013-01-18 17:09:00,
2013-01-18 12:12:00,147.6,99.9,30.37,East,79,9.0,10.1,82,0.00,,SKC,0.00,VWS V14.01,2013-01-18 17:12:00,
2013-01-18 12:13:00,148.1,99.9,30.37,East,79,3.2,4.5,81,0.00,,SKC,0.00,VWS V14.01,2013-01-18 17:13:00,
2013-01-18 12:14:00,147.6,99.9,30.37,East,79,2.0,4.5,82,0.00,,SKC,0.00,VWS V14.01,2013-01-18 17:14:00,
2013-01-18 12:15:00,147.6,99.9,30.37,ENE,66,3.6,4.2,82,0.00,,SKC,0.00,VWS V14.01,2013-01-18 17:15:00,
2013-01-18 12:18:00,147.6,99.9,30.36,SSE,152,6.6,6.6,82,0.00,,SKC,0.00,VWS V14.01,2013-01-18 17:18:00,
2013-01-18 12:19:00,147.6,99.9,30.36,ENE,72,2.7,3.9,82,0.00,,SKC,0.00,VWS V14.01,2013-01-18 17:19:00,
2013-01-18 12:20:00,147.6,99.9,30.36,ENE,66,1.0,1.9,81,0.00,,SKC,0.00,VWS V14.01,2013-01-18 17:20:00,
2013-01-18 12:23:00,148.1,99.9,30.36,NE,34,8.6,9.5,81,0.00,,SKC,0.00,VWS V14.01,2013-01-18 17:23:00,
2013-01-18 12:24:00,148.1,99.9,30.35,NNE,15,7.5,9.6,80,0.00,,SKC,0.00,VWS V14.01,2013-01-18 17:24:00,
2013-01-18 12:25:00,148.2,99.9,30.35,ENE,62,5.2,6.0,80,0.00,,SKC,0.00,VWS V14.01,2013-01-18 17:25:00,
2013-01-18 12:28:00,148.2,99.9,30.36,ENE,75,5.7,5.7,80,0.00,,SKC,0.00,VWS V14.01,2013-01-18 17:28:00,
2013-01-18 12:29:00,148.1,99.9,30.36,South,176,4.0,5.8,79,0.00,,SKC,0.00,VWS V14.01,2013-01-18 17:29:00,
2013-01-18 12:30:00,148.2,99.9,30.36,SE,128,3.9,4.6,79,0.00,,SKC,0.00,VWS V14.01,2013-01-18 17:30:00,
2013-01-18 12:33:00,148.2,99.9,30.36,SSE,166,2.6,3.4,79,0.00,,SKC,0.00,VWS V14.01,2013-01-18 17:33:00,
2013-01-18 12:34:00,148.2,99.9,30.35,SE,128,5.8,7.4,79,0.00,,SKC,0.00,VWS V14.01,2013-01-18 17:34:00,
2013-01-18 12:35:00,148.2,99.9,30.35,SE,124,5.9,6.4,79,0.00,,SKC,0.00,VWS V14.01,2013-01-18 17:35:00,
2013-01-18 12:38:00,148.3,99.9,30.35,ESE,108,3.7,5.8,77,0.00,,SKC,0.00,VWS V14.01,2013-01-18 17:38:00,
2013-01-18 12:39:00,148.2,99.9,30.35,ESE,107,0.9,8.8,78,0.00,,SKC,0.00,VWS V14.01,2013-01-18 17:39:00,
2013-01-18 12:40:00,148.2,99.9,30.35,ENE,60,3.9,4.5,78,0.00,,SKC,0.00,VWS V14.01,2013-01-18 17:40:00,
2013-01-18 12:43:00,148.3,99.9,30.34,ESE,120,4.0,9.8,76,0.00,,SKC,0.00,VWS V14.01,2013-01-18 17:43:00,
2013-01-18 12:44:00,148.4,99.9,30.35,SSW,200,2.9,5.0,76,0.00,,SKC,0.00,VWS V14.01,2013-01-18 17:44:00,
2013-01-18 12:45:00,148.4,99.9,30.35,SSW,197,2.6,4.2,76,0.00,,SKC,0.00,VWS V14.01,2013-01-18 17:45:00,
2013-01-18 12:48:00,148.4,99.9,30.34,South,183,5.7,9.5,76,0.00,,SKC,0.00,VWS V14.01,2013-01-18 17:48:00,
2013-01-18 12:50:00,148.4,99.9,30.35,South,172,4.0,4.0,76,0.00,,SKC,0.00,VWS V14.01,2013-01-18 17:50:00,
2013-01-18 12:54:00,148.4,99.9,30.34,SW,217,6.2,6.2,75,0.00,,SKC,0.00,VWS V14.01,2013-01-18 17:54:00,
2013-01-18 12:55:00,148.4,99.9,30.34,SSE,165,4.0,4.5,75,0.00,,SKC,0.00,VWS V14.01,2013-01-18 17:55:00,
2013-01-18 12:59:00,148.5,99.9,30.33,SE,142,4.0,7.6,74,0.00,,SKC,0.00,VWS V14.01,2013-01-18 17:59:00,
2013-01-18 13:00:00,148.4,99.9,30.33,SSW,200,6.0,6.1,74,0.00,,SKC,0.00,VWS V14.01,2013-01-18 18:00:00,
2013-01-18 13:01:00,148.5,99.9,30.34,South,179,3.1,5.1,74,0.00,,SKC,0.00,VWS V14.01,2013-01-18 18:01:00,
2013-01-18 13:04:00,148.5,99.9,30.33,SE,142,1.3,4.8,74,0.00,,SKC,0.00,VWS V14.01,2013-01-18 18:04:00,
2013-01-18 13:05:00,148.4,99.9,30.33,SSE,163,6.4,6.6,74,0.00,,SKC,0.00,VWS V14.01,2013-01-18 18:05:00,
2013-01-18 13:06:00,148.4,99.9,30.33,SE,142,2.2,3.6,74,0.00,,SKC,0.00,VWS V14.01,2013-01-18 18:06:00,
2013-01-18 13:09:00,148.5,99.9,30.33,South,174,2.8,6.2,76,0.00,,SKC,0.00,VWS V14.01,2013-01-18 18:09:00,
2013-01-18 13:10:00,149.1,99.9,30.33,South,176,7.6,7.6,76,0.00,,SKC,0.00,VWS V14.01,2013-01-18 18:10:00,
2013-01-18 13:11:00,148.5,99.9,30.33,South,179,6.5,6.5,76,0.00,,SKC,0.00,VWS V14.01,2013-01-18 18:11:00,
2013-01-18 13:15:00,148.5,99.9,30.32,SSE,165,4.0,5.1,76,0.00,,SKC,0.00,VWS V14.01,2013-01-18 18:15:00,
2013-01-18 13:16:00,148.4,99.9,30.33,South,181,5.1,5.6,77,0.00,,SKC,0.00,VWS V14.01,2013-01-18 18:16:00,
2013-01-18 13:20:00,148.4,99.9,30.32,South,190,6.1,9.0,77,0.00,,SKC,0.00,VWS V14.01,2013-01-18 18:20:00,
2013-01-18 13:21:00,148.5,99.9,30.32,South,170,6.3,6.3,77,0.00,,SKC,0.00,VWS V14.01,2013-01-18 18:21:00,
2013-01-18 13:25:00,148.5,99.9,30.32,SSE,149,5.5,8.1,77,0.00,,SKC,0.00,VWS V14.01,2013-01-18 18:25:00,
2013-01-18 13:26:00,148.5,99.9,30.32,SSE,159,3.2,4.3,77,0.00,,SKC,0.00,VWS V14.01,2013-01-18 18:26:00,
2013-01-18 13:30:00,148.5,99.9,30.31,SSE,155,6.6,10.3,78,0.00,,SKC,0.00,VWS V14.01,2013-01-18 18:30:00,
2013-01-18 13:31:00,148.5,99.9,30.31,SSE,165,6.5,8.7,78,0.00,,SKC,0.00,VWS V14.01,2013-01-18 18:31:00,
2013-01-18 13:35:00,148.5,99.9,30.31,SSE,166,6.4,8.5,77,0.00,,SKC,0.00,VWS V14.01,2013-01-18 18:35:00,
2013-01-18 13:36:00,149.1,99.9,30.31,SSW,197,3.0,9.6,77,0.00,,SKC,0.00,VWS V14.01,2013-01-18 18:36:00,
2013-01-18 13:40:00,149.2,99.9,30.31,SSE,163,4.2,5.7,78,0.00,,SKC,0.00,VWS V14.01,2013-01-18 18:40:00,
2013-01-18 13:41:00,149.1,99.9,30.31,SSE,156,3.5,4.0,79,0.00,,SKC,0.00,VWS V14.01,2013-01-18 18:41:00,
2013-01-18 13:45:00,149.1,99.9,30.31,South,190,7.8,8.3,79,0.00,,SKC,0.00,VWS V14.01,2013-01-18 18:45:00,
2013-01-18 13:46:00,149.1,99.9,30.31,South,187,5.6,8.3,79,0.00,,SKC,0.00,VWS V14.01,2013-01-18 18:46:00,
2013-01-18 13:47:00,149.1,99.9,30.31,SSE,158,6.9,7.1,79,0.00,,SKC,0.00,VWS V14.01,2013-01-18 18:47:00,
2013-01-18 13:51:00,148.5,99.9,30.31,South,177,3.7,5.8,80,0.00,,SKC,0.00,VWS V14.01,2013-01-18 18:51:00,
2013-01-18 13:52:00,149.1,99.9,30.30,South,190,6.0,8.0,80,0.00,,SKC,0.00,VWS V14.01,2013-01-18 18:52:00,
2013-01-18 13:56:00,148.5,99.9,30.31,SSE,158,4.1,8.5,80,0.00,,SKC,0.00,VWS V14.01,2013-01-18 18:56:00,
2013-01-18 13:57:00,148.5,99.9,30.31,SSE,167,1.9,5.2,80,0.00,,SKC,0.00,VWS V14.01,2013-01-18 18:57:00,
2013-01-18 14:01:00,149.1,99.9,30.31,SSW,197,3.4,5.1,81,0.00,,SKC,0.00,VWS V14.01,2013-01-18 19:01:00,
2013-01-18 14:02:00,148.5,99.9,30.31,South,181,4.3,6.7,81,0.00,,SKC,0.00,VWS V14.01,2013-01-18 19:02:00,
2013-01-18 14:06:00,148.5,99.9,30.31,SSE,158,7.6,8.9,80,0.00,,SKC,0.00,VWS V14.01,2013-01-18 19:06:00,
2013-01-18 14:08:00,149.2,99.9,30.30,South,173,4.0,5.7,81,0.00,,SKC,0.00,VWS V14.01,2013-01-18 19:08:00,
2013-01-18 14:11:00,149.1,99.9,30.30,SE,145,2.8,5.2,80,0.00,,SKC,0.00,VWS V14.01,2013-01-18 19:11:00,
2013-01-18 14:12:00,149.2,99.9,30.30,South,169,4.7,6.3,80,0.00,,SKC,0.00,VWS V14.01,2013-01-18 19:12:00,
2013-01-18 14:13:00,149.1,99.9,30.30,SSW,211,2.7,7.0,80,0.00,,SKC,0.00,VWS V14.01,2013-01-18 19:13:00,
2013-01-18 14:16:00,149.2,99.9,30.30,SSE,159,1.9,7.3,80,0.00,,SKC,0.00,VWS V14.01,2013-01-18 19:16:00,
2013-01-18 14:17:00,149.2,99.9,30.30,SW,218,3.2,3.7,80,0.00,,SKC,0.00,VWS V14.01,2013-01-18 19:17:00,
2013-01-18 14:18:00,149.1,99.9,30.29,SSW,202,6.3,9.1,80,0.00,,SKC,0.00,VWS V14.01,2013-01-18 19:18:00,
2013-01-18 14:21:00,149.2,99.9,30.30,South,181,4.0,5.7,79,0.00,,SKC,0.00,VWS V14.01,2013-01-18 19:21:00,
2013-01-18 14:22:00,149.1,99.9,30.29,South,170,1.8,6.5,79,0.00,,SKC,0.00,VWS V14.01,2013-01-18 19:22:00,
2013-01-18 14:23:00,149.2,99.9,30.30,SSE,167,6.7,8.1,80,0.00,,SKC,0.00,VWS V14.01,2013-01-18 19:23:00,
2013-01-18 14:26:00,149.1,99.9,30.30,SSE,152,5.1,10.9,79,0.00,,SKC,0.00,VWS V14.01,2013-01-18 19:26:00,
2013-01-18 14:27:00,149.2,99.9,30.30,SSE,159,2.1,6.8,79,0.00,,SKC,0.00,VWS V14.01,2013-01-18 19:27:00,
2013-01-18 14:29:00,149.1,99.9,30.29,South,177,2.1,6.3,80,0.00,,SKC,0.00,VWS V14.01,2013-01-18 19:29:00,
2013-01-18 14:31:00,149.2,99.9,30.29,South,183,3.7,6.8,80,0.00,,SKC,0.00,VWS V14.01,2013-01-18 19:31:00,
2013-01-18 14:32:00,149.2,99.9,30.29,SSE,160,5.0,9.4,80,0.00,,SKC,0.00,VWS V14.01,2013-01-18 19:32:00,
2013-01-18 14:33:00,149.2,99.9,30.29,SW,214,4.7,4.7,79,0.00,,SKC,0.00,VWS V14.01,2013-01-18 19:33:00,
2013-01-18 14:36:00,149.2,99.9,30.29,South,187,3.0,7.6,79,0.00,,SKC,0.00,VWS V14.01,2013-01-18 19:36:00,
2013-01-18 14:37:00,149.2,99.9,30.29,SSE,150,3.6,6.7,79,0.00,,SKC,0.00,VWS V14.01,2013-01-18 19:37:00,
2013-01-18 14:39:00,149.3,99.9,30.29,SSW,193,4.5,6.0,79,0.00,,SKC,0.00,VWS V14.01,2013-01-18 19:39:00,
2013-01-18 14:42:00,149.1,99.9,30.28,SW,214,5.7,8.3,80,0.00,,SKC,0.00,VWS V14.01,2013-01-18 19:42:00,
2013-01-18 14:44:00,149.2,99.9,30.28,SSW,208,3.4,4.2,81,0.00,,SKC,0.00,VWS V14.01,2013-01-18 19:44:00,
2013-01-18 14:47:00,149.3,99.9,30.28,South,173,5.7,5.9,80,0.00,,SKC,0.00,VWS V14.01,2013-01-18 19:47:00,
2013-01-18 14:49:00,149.3,99.9,30.28,South,180,4.3,6.8,80,0.00,,SKC,0.00,VWS V14.01,2013-01-18 19:49:00,
2013-01-18 14:52:00,149.3,99.9,30.28,South,170,3.3,4.8,80,0.00,,SKC,0.00,VWS V14.01,2013-01-18 19:52:00,
2013-01-18 14:54:00,149.3,99.9,30.28,South,173,1.9,4.8,80,0.00,,SKC,0.00,VWS V14.01,2013-01-18 19:54:00,
2013-01-18 14:57:00,149.2,99.9,30.28,SSE,152,5.5,5.8,79,0.00,,SKC,0.00,VWS V14.01,2013-01-18 19:57:00,
2013-01-18 14:59:00,149.2,99.9,30.28,SSW,210,7.0,7.0,80,0.00,,SKC,0.00,VWS V14.01,2013-01-18 19:59:00,
2013-01-18 15:02:00,149.3,99.9,30.28,SSW,207,5.4,6.7,80,0.00,,SKC,0.00,VWS V14.01,2013-01-18 20:02:00,
2013-01-18 15:04:00,149.2,99.9,30.28,SW,233,6.2,8.9,80,0.00,,SKC,0.00,VWS V14.01,2013-01-18 20:04:00,
2013-01-18 15:07:00,149.3,99.9,30.28,South,169,2.4,6.3,81,0.00,,SKC,0.00,VWS V14.01,2013-01-18 20:07:00,
2013-01-18 15:09:00,149.2,99.9,30.28,SSE,167,0.9,7.1,81,0.00,,SKC,0.00,VWS V14.01,2013-01-18 20:09:00,
2013-01-18 15:12:00,149.2,99.9,30.28,SW,226,6.5,7.0,82,0.00,,SKC,0.00,VWS V14.01,2013-01-18 20:12:00,
2013-01-18 15:14:00,149.3,99.9,30.28,South,190,2.4,3.9,81,0.00,,SKC,0.00,VWS V14.01,2013-01-18 20:14:00,
2013-01-18 15:17:00,149.2,99.9,30.28,SSW,212,3.0,8.5,81,0.00,,SKC,0.00,VWS V14.01,2013-01-18 20:17:00,
2013-01-18 15:18:00,149.3,99.9,30.28,SSW,205,5.8,7.1,82,0.00,,SKC,0.00,VWS V14.01,2013-01-18 20:18:00,
2013-01-18 15:19:00,149.3,99.9,30.27,SSW,207,3.7,6.3,82,0.00,,SKC,0.00,VWS V14.01,2013-01-18 20:19:00,
2013-01-18 15:22:00,149.3,99.9,30.28,WSW,239,4.2,7.1,82,0.00,,SKC,0.00,VWS V14.01,2013-01-18 20:22:00,
2013-01-18 15:23:00,149.2,99.9,30.28,SW,214,6.6,7.3,82,0.00,,SKC,0.00,VWS V14.01,2013-01-18 20:23:00,
2013-01-18 15:25:00,149.2,99.9,30.28,South,184,0.0,1.4,82,0.00,,SKC,0.00,VWS V14.01,2013-01-18 20:25:00,
2013-01-18 15:27:00,149.3,99.9,30.28,SSW,211,4.5,7.8,82,0.00,,SKC,0.00,VWS V14.01,2013-01-18 20:27:00,
2013-01-18 15:28:00,149.2,99.9,30.28,SW,219,6.3,6.8,82,0.00,,SKC,0.00,VWS V14.01,2013-01-18 20:28:00,
2013-01-18 15:30:00,149.4,99.9,30.28,SSW,204,7.4,7.8,82,0.00,,SKC,0.00,VWS V14.01,2013-01-18 20:30:00,
2013-01-18 15:32:00,149.3,99.9,30.28,SSW,198,6.8,8.6,82,0.00,,SKC,0.00,VWS V14.01,2013-01-18 20:32:00,
2013-01-18 15:33:00,149.3,99.9,30.28,SSW,198,6.4,7.0,82,0.00,,SKC,0.00,VWS V14.01,2013-01-18 20:33:00,
2013-01-18 15:35:00,149.3,99.9,30.28,SSW,200,7.6,7.7,83,0.00,,SKC,0.00,VWS V14.01,2013-01-18 20:35:00,
2013-01-18 15:37:00,149.3,99.9,30.28,SSE,163,4.8,7.3,83,0.00,,SKC,0.00,VWS V14.01,2013-01-18 20:37:00,
2013-01-18 15:38:00,149.2,99.9,30.28,SSW,204,5.6,6.0,83,0.00,,SKC,0.00,VWS V14.01,2013-01-18 20:38:00,
2013-01-18 15:41:00,149.3,99.9,30.28,SSW,200,7.1,7.6,83,0.00,,SKC,0.00,VWS V14.01,2013-01-18 20:41:00,
2013-01-18 15:42:00,149.3,99.9,30.28,SSW,193,7.6,8.2,83,0.00,,SKC,0.00,VWS V14.01,2013-01-18 20:42:00,
2013-01-18 15:43:00,149.3,99.9,30.28,SSW,201,6.6,8.0,83,0.00,,SKC,0.00,VWS V14.01,2013-01-18 20:43:00,
2013-01-18 15:46:00,149.3,99.9,30.28,SW,214,2.2,4.7,83,0.00,,SKC,0.00,VWS V14.01,2013-01-18 20:46:00,
2013-01-18 15:47:00,149.2,99.9,30.28,South,173,2.1,5.6,83,0.00,,SKC,0.00,VWS V14.01,2013-01-18 20:47:00,
2013-01-18 15:48:00,149.2,99.9,30.28,SW,219,5.0,5.5,83,0.00,,SKC,0.00,VWS V14.01,2013-01-18 20:48:00,
2013-01-18 15:51:00,149.2,99.9,30.27,SW,221,2.7,4.7,83,0.00,,SKC,0.00,VWS V14.01,2013-01-18 20:51:00,
2013-01-18 15:52:00,149.3,99.9,30.27,SSE,149,3.3,4.5,83,0.00,,SKC,0.00,VWS V14.01,2013-01-18 20:52:00,
2013-01-18 15:53:00,149.2,99.9,30.28,SW,219,2.7,4.9,83,0.00,,SKC,0.00,VWS V14.01,2013-01-18 20:53:00,
2013-01-18 15:56:00,149.3,99.9,30.28,SSW,201,4.5,5.7,83,0.00,,SKC,0.00,VWS V14.01,2013-01-18 20:56:00,
2013-01-18 15:57:00,149.4,99.9,30.28,SW,217,5.3,6.4,83,0.00,,SKC,0.00,VWS V14.01,2013-01-18 20:57:00,
2013-01-18 15:58:00,149.3,99.9,30.28,SW,219,3.9,5.3,82,0.00,,SKC,0.00,VWS V14.01,2013-01-18 20:58:00,
2013-01-18 16:01:00,149.3,99.9,30.28,SSW,193,0.0,1.2,83,0.00,,SKC,0.00,VWS V14.01,2013-01-18 21:01:00,
2013-01-18 16:02:00,149.4,99.9,30.28,SSW,207,5.5,5.5,84,0.00,,SKC,0.00,VWS V14.01,2013-01-18 21:02:00,
2013-01-18 16:03:00,149.3,99.9,30.28,SSW,211,4.2,6.2,83,0.00,,SKC,0.00,VWS V14.01,2013-01-18 21:03:00,
2013-01-18 16:04:00,149.4,99.9,30.28,SSW,205,4.4,5.0,83,0.00,,SKC,0.00,VWS V14.01,2013-01-18 21:04:00,
2013-01-18 16:06:00,149.4,99.9,30.27,SSW,204,3.9,3.9,83,0.00,,SKC,0.00,VWS V14.01,2013-01-18 21:06:00,
2013-01-18 16:07:00,149.3,99.9,30.28,SSW,198,1.9,1.9,83,0.00,,SKC,0.00,VWS V14.01,2013-01-18 21:07:00,
2013-01-18 16:08:00,149.4,99.9,30.27,SSW,197,1.8,3.5,83,0.00,,SKC,0.00,VWS V14.01,2013-01-18 21:08:00,
2013-01-18 16:09:00,149.4,99.9,30.27,SE,134,1.2,1.3,83,0.00,,SKC,0.00,VWS V14.01,2013-01-18 21:09:00,
2013-01-18 16:11:00,149.3,99.9,30.28,SSW,210,4.7,4.7,83,0.00,,SKC,0.00,VWS V14.01,2013-01-18 21:11:00,
2013-01-18 16:13:00,149.4,99.9,30.28,SW,217,2.3,2.3,83,0.00,,SKC,0.00,VWS V14.01,2013-01-18 21:13:00,
2013-01-18 16:14:00,149.3,99.9,30.27,South,176,1.1,4.1,83,0.00,,SKC,0.00,VWS V14.01,2013-01-18 21:14:00,
2013-01-18 16:16:00,149.4,99.9,30.27,SSW,207,3.9,6.6,83,0.00,,SKC,0.00,VWS V14.01,2013-01-18 21:16:00,
2013-01-18 16:18:00,149.3,99.9,30.27,SSW,204,2.1,3.9,83,0.00,,SKC,0.00,VWS V14.01,2013-01-18 21:18:00,
2013-01-18 16:19:00,149.3,99.9,30.27,SSW,205,5.0,5.5,83,0.00,,SKC,0.00,VWS V14.01,2013-01-18 21:19:00,
2013-01-18 16:22:00,149.3,99.9,30.27,SSW,212,5.3,5.5,84,0.00,,SKC,0.00,VWS V14.01,2013-01-18 21:22:00,
2013-01-18 16:23:00,149.4,99.9,30.27,SW,219,5.5,7.0,84,0.00,,SKC,0.00,VWS V14.01,2013-01-18 21:23:00,
2013-01-18 16:24:00,149.4,99.9,30.27,SW,222,5.5,6.0,84,0.00,,SKC,0.00,VWS V14.01,2013-01-18 21:24:00,
2013-01-18 16:27:00,149.3,99.9,30.28,SW,231,5.2,5.7,84,0.00,,SKC,0.00,VWS V14.01,2013-01-18 21:27:00,
2013-01-18 16:28:00,149.3,99.9,30.28,SW,219,4.5,6.5,84,0.00,,SKC,0.00,VWS V14.01,2013-01-18 21:28:00,
2013-01-18 16:29:00,149.4,99.9,30.28,SW,224,5.5,5.6,84,0.00,,SKC,0.00,VWS V14.01,2013-01-18 21:29:00,
2013-01-18 16:32:00,149.4,99.9,30.28,SSW,212,2.4,5.3,85,0.00,,SKC,0.00,VWS V14.01,2013-01-18 21:32:00,
2013-01-18 16:33:00,149.3,99.9,30.28,SW,215,2.5,2.7,85,0.00,,SKC,0.00,VWS V14.01,2013-01-18 21:33:00,
2013-01-18 16:34:00,149.3,99.9,30.28,SW,222,5.4,5.5,85,0.00,,SKC,0.00,VWS V14.01,2013-01-18 21:34:00,
2013-01-18 16:37:00,149.4,99.9,30.27,SW,232,3.4,3.6,85,0.00,,SKC,0.00,VWS V14.01,2013-01-18 21:37:00,
2013-01-18 16:38:00,149.4,99.9,30.28,SW,229,2.2,4.2,85,0.00,,SKC,0.00,VWS V14.01,2013-01-18 21:38:00,
2013-01-18 16:39:00,149.4,99.9,30.28,WSW,238,2.3,4.4,85,0.00,,SKC,0.00,VWS V14.01,2013-01-18 21:39:00,
2013-01-18 16:42:00,149.4,99.9,30.27,SSW,205,0.0,0.0,84,0.00,,SKC,0.00,VWS V14.01,2013-01-18 21:42:00,
2013-01-18 16:43:00,149.4,99.9,30.27,SSW,205,0.0,0.0,84,0.00,,SKC,0.00,VWS V14.01,2013-01-18 21:43:00,
2013-01-18 16:44:00,149.3,99.9,30.27,SSW,205,0.0,0.0,84,0.00,,SKC,0.00,VWS V14.01,2013-01-18 21:44:00,
2013-01-18 16:48:00,149.4,99.9,30.27,SW,231,3.1,4.8,84,0.00,,SKC,0.00,VWS V14.01,2013-01-18 21:48:00,
2013-01-18 16:49:00,149.4,99.9,30.27,SW,218,2.1,4.3,84,0.00,,SKC,0.00,VWS V14.01,2013-01-18 21:49:00,
2013-01-18 16:53:00,149.4,99.9,30.27,SW,229,3.6,5.4,85,0.00,,SKC,0.00,VWS V14.01,2013-01-18 21:53:00,
2013-01-18 16:54:00,149.4,99.9,30.27,SW,235,1.9,3.8,85,0.00,,SKC,0.00,VWS V14.01,2013-01-18 21:54:00,
2013-01-18 16:58:00,149.4,99.9,30.27,SW,219,4.6,4.6,85,0.00,,SKC,0.00,VWS V14.01,2013-01-18 21:58:00,
2013-01-18 16:59:00,149.4,99.9,30.27,SW,229,3.0,3.0,85,0.00,,SKC,0.00,VWS V14.01,2013-01-18 21:59:00,
2013-01-18 17:03:00,149.4,99.9,30.27,SW,214,1.8,3.4,85,0.00,,SKC,0.00,VWS V14.01,2013-01-18 22:03:00,
2013-01-18 17:04:00,149.4,99.9,30.27,SW,218,0.6,1.6,85,0.00,,SKC,0.00,VWS V14.01,2013-01-18 22:04:00,
2013-01-18 17:08:00,149.4,99.9,30.27,SW,226,0.0,1.4,85,0.00,,SKC,0.00,VWS V14.01,2013-01-18 22:08:00,
2013-01-18 17:09:00,149.4,99.9,30.27,SW,226,0.0,0.0,85,0.00,,SKC,0.00,VWS V14.01,2013-01-18 22:09:00,
2013-01-18 17:13:00,149.4,99.9,30.27,SW,226,0.0,0.0,86,0.00,,SKC,0.00,VWS V14.01,2013-01-18 22:13:00,
2013-01-18 17:14:00,149.5,99.9,30.27,SW,226,0.0,0.0,86,0.00,,SKC,0.00,VWS V14.01,2013-01-18 22:14:00,
2013-01-18 17:18:00,149.5,99.9,30.28,WSW,252,2.2,3.0,85,0.00,,SKC,0.00,VWS V14.01,2013-01-18 22:18:00,
2013-01-18 17:19:00,149.5,99.9,30.28,WSW,250,1.9,2.5,86,0.00,,SKC,0.00,VWS V14.01,2013-01-18 22:19:00,
2013-01-18 17:20:00,149.5,99.9,30.27,SW,229,0.0,0.6,86,0.00,,SKC,0.00,VWS V14.01,2013-01-18 22:20:00,
2013-01-18 17:23:00,149.5,99.9,30.27,WSW,245,3.5,3.5,86,0.00,,SKC,0.00,VWS V14.01,2013-01-18 22:23:00,
2013-01-18 17:24:00,149.5,99.9,30.27,WSW,248,2.1,3.2,86,0.00,,SKC,0.00,VWS V14.01,2013-01-18 22:24:00,
2013-01-18 17:25:00,149.5,99.9,30.27,WSW,242,1.1,1.6,86,0.00,,SKC,0.00,VWS V14.01,2013-01-18 22:25:00,
2013-01-18 17:28:00,149.5,99.9,30.27,SW,233,0.0,0.0,86,0.00,,SKC,0.00,VWS V14.01,2013-01-18 22:28:00,
2013-01-18 17:29:00,149.5,99.9,30.27,WSW,246,2.5,3.5,86,0.00,,SKC,0.00,VWS V14.01,2013-01-18 22:29:00,
2013-01-18 17:30:00,149.5,99.9,30.27,WSW,240,2.9,3.3,86,0.00,,SKC,0.00,VWS V14.01,2013-01-18 22:30:00,
2013-01-18 17:33:00,149.5,99.9,30.27,SW,236,0.0,2.5,86,0.00,,SKC,0.00,VWS V14.01,2013-01-18 22:33:00,
2013-01-18 17:34:00,149.5,99.9,30.28,SW,236,0.0,0.0,86,0.00,,SKC,0.00,VWS V14.01,2013-01-18 22:34:00,
2013-01-18 17:35:00,149.5,99.9,30.28,SW,236,0.0,0.0,86,0.00,,SKC,0.00,VWS V14.01,2013-01-18 22:35:00,
2013-01-18 17:38:00,149.5,99.9,30.28,SW,236,0.0,0.0,86,0.00,,SKC,0.00,VWS V14.01,2013-01-18 22:38:00,
2013-01-18 17:39:00,149.5,99.9,30.28,SW,236,0.0,0.0,86,0.00,,SKC,0.00,VWS V14.01,2013-01-18 22:39:00,
2013-01-18 17:40:00,149.5,99.9,30.28,SW,236,0.0,0.0,86,0.00,,SKC,0.00,VWS V14.01,2013-01-18 22:40:00,
2013-01-18 17:44:00,149.5,99.9,30.27,SW,236,0.0,0.0,86,0.00,,SKC,0.00,VWS V14.01,2013-01-18 22:44:00,
2013-01-18 17:45:00,149.5,99.9,30.28,SW,236,0.0,0.0,86,0.00,,SKC,0.00,VWS V14.01,2013-01-18 22:45:00,
2013-01-18 17:49:00,149.5,99.9,30.28,WSW,257,3.0,3.0,85,0.00,,SKC,0.00,VWS V14.01,2013-01-18 22:49:00,
2013-01-18 17:50:00,149.5,99.9,30.28,ENE,77,0.0,0.8,85,0.00,,SKC,0.00,VWS V14.01,2013-01-18 22:50:00,
2013-01-18 17:51:00,149.5,99.9,30.28,ENE,77,0.0,0.0,85,0.00,,SKC,0.00,VWS V14.01,2013-01-18 22:51:00,
2013-01-18 17:54:00,149.5,99.9,30.28,SW,224,0.0,0.0,85,0.00,,SKC,0.00,VWS V14.01,2013-01-18 22:54:00,
2013-01-18 17:55:00,149.5,99.9,30.28,SW,224,0.0,0.0,85,0.00,,SKC,0.00,VWS V14.01,2013-01-18 22:55:00,
2013-01-18 17:56:00,149.5,99.9,30.28,SW,224,0.0,0.0,85,0.00,,SKC,0.00,VWS V14.01,2013-01-18 22:56:00,
2013-01-18 17:59:00,149.5,99.9,30.28,SW,224,0.0,0.0,86,0.00,,SKC,0.00,VWS V14.01,2013-01-18 22:59:00,
2013-01-18 18:00:00,149.5,99.9,30.28,SW,224,0.0,0.0,86,0.00,,SKC,0.00,VWS V14.01,2013-01-18 23:00:00,
2013-01-18 18:01:00,149.5,99.9,30.28,SW,224,0.0,0.0,86,0.00,,SKC,0.00,VWS V14.01,2013-01-18 23:01:00,
2013-01-18 18:04:00,149.5,99.9,30.28,SW,224,0.0,0.0,86,0.00,,SKC,0.00,VWS V14.01,2013-01-18 23:04:00,
2013-01-18 18:05:00,149.5,99.9,30.28,SW,224,0.0,0.0,86,0.00,,SKC,0.00,VWS V14.01,2013-01-18 23:05:00,
2013-01-18 18:06:00,149.5,99.9,30.28,SW,224,0.0,0.0,86,0.00,,SKC,0.00,VWS V14.01,2013-01-18 23:06:00,
2013-01-18 18:09:00,149.5,99.9,30.28,WNW,283,0.0,2.3,86,0.00,,SKC,0.00,VWS V14.01,2013-01-18 23:09:00,
2013-01-18 18:10:00,149.5,99.9,30.28,WNW,283,0.0,0.0,86,0.00,,SKC,0.00,VWS V14.01,2013-01-18 23:10:00,
2013-01-18 18:12:00,149.5,99.9,30.28,WNW,283,1.0,1.1,86,0.00,,SKC,0.00,VWS V14.01,2013-01-18 23:12:00,
2013-01-18 18:14:00,149.5,99.9,30.28,West,276,0.0,0.0,86,0.00,,SKC,0.00,VWS V14.01,2013-01-18 23:14:00,
2013-01-18 18:15:00,149.5,99.9,30.28,West,276,0.0,0.0,87,0.00,,SKC,0.00,VWS V14.01,2013-01-18 23:15:00,
2013-01-18 18:17:00,149.5,99.9,30.28,West,276,0.0,0.0,87,0.00,,SKC,0.00,VWS V14.01,2013-01-18 23:17:00,
2013-01-18 18:19:00,149.5,99.9,30.28,West,276,0.0,0.0,87,0.00,,SKC,0.00,VWS V14.01,2013-01-18 23:19:00,
2013-01-18 18:20:00,149.5,99.9,30.28,West,276,0.0,0.0,87,0.00,,SKC,0.00,VWS V14.01,2013-01-18 23:20:00,
2013-01-18 18:21:00,149.5,99.9,30.28,West,276,0.0,0.0,87,0.00,,SKC,0.00,VWS V14.01,2013-01-18 23:21:00,
2013-01-18 18:22:00,149.5,99.9,30.28,West,276,0.0,0.0,87,0.00,,SKC,0.00,VWS V14.01,2013-01-18 23:22:00,
2013-01-18 18:24:00,149.5,99.9,30.28,West,276,0.0,0.0,87,0.00,,SKC,0.00,VWS V14.01,2013-01-18 23:24:00,
2013-01-18 18:25:00,149.5,99.9,30.28,West,276,0.0,0.0,87,0.00,,SKC,0.00,VWS V14.01,2013-01-18 23:25:00,
2013-01-18 18:26:00,149.5,99.9,30.28,West,276,0.0,0.0,87,0.00,,SKC,0.00,VWS V14.01,2013-01-18 23:26:00,
2013-01-18 18:27:00,149.5,99.9,30.29,West,276,0.0,0.0,88,0.00,,SKC,0.00,VWS V14.01,2013-01-18 23:27:00,
2013-01-18 18:29:00,149.5,99.9,30.28,West,276,0.0,0.0,88,0.00,,SKC,0.00,VWS V14.01,2013-01-18 23:29:00,
2013-01-18 18:30:00,149.5,99.9,30.28,West,276,0.0,0.0,88,0.00,,SKC,0.00,VWS V14.01,2013-01-18 23:30:00,
2013-01-18 18:31:00,149.5,99.9,30.28,West,276,0.0,0.0,88,0.00,,SKC,0.00,VWS V14.01,2013-01-18 23:31:00,
2013-01-18 18:32:00,149.5,99.9,30.28,West,276,0.0,0.0,88,0.00,,SKC,0.00,VWS V14.01,2013-01-18 23:32:00,
2013-01-18 18:34:00,149.5,99.9,30.28,West,276,0.0,0.0,88,0.00,,SKC,0.00,VWS V14.01,2013-01-18 23:34:00,
2013-01-18 18:35:00,149.5,99.9,30.28,West,276,0.0,0.0,88,0.00,,SKC,0.00,VWS V14.01,2013-01-18 23:35:00,
2013-01-18 18:36:00,149.5,99.9,30.29,West,276,0.0,0.0,88,0.00,,SKC,0.00,VWS V14.01,2013-01-18 23:36:00,
2013-01-18 18:38:00,149.5,99.9,30.29,West,276,0.0,0.0,88,0.00,,SKC,0.00,VWS V14.01,2013-01-18 23:38:00,
2013-01-18 18:39:00,149.5,99.9,30.29,West,276,0.0,0.0,88,0.00,,SKC,0.00,VWS V14.01,2013-01-18 23:39:00,
2013-01-18 18:40:00,149.5,99.9,30.29,West,276,0.0,0.0,88,0.00,,SKC,0.00,VWS V14.01,2013-01-18 23:40:00,
2013-01-18 18:41:00,149.5,99.9,30.29,West,276,0.0,0.0,89,0.00,,SKC,0.00,VWS V14.01,2013-01-18 23:41:00,
2013-01-18 18:43:00,149.5,99.9,30.29,West,276,0.0,0.0,89,0.00,,SKC,0.00,VWS V14.01,2013-01-18 23:43:00,
2013-01-18 18:44:00,149.5,99.9,30.29,West,276,0.0,0.0,89,0.00,,SKC,0.00,VWS V14.01,2013-01-18 23:44:00,
2013-01-18 18:45:00,149.5,99.9,30.29,West,276,0.0,0.0,89,0.00,,SKC,0.00,VWS V14.01,2013-01-18 23:45:00,
2013-01-18 18:46:00,149.5,99.9,30.29,West,276,0.0,0.0,89,0.00,,SKC,0.00,VWS V14.01,2013-01-18 23:46:00,
2013-01-18 18:48:00,149.5,99.9,30.29,West,276,0.0,0.0,89,0.00,,SKC,0.00,VWS V14.01,2013-01-18 23:48:00,
2013-01-18 18:49:00,149.5,99.9,30.29,West,276,0.0,0.0,90,0.00,,SKC,0.00,VWS V14.01,2013-01-18 23:49:00,
2013-01-18 18:50:00,149.5,99.9,30.29,West,276,0.0,0.0,90,0.00,,SKC,0.00,VWS V14.01,2013-01-18 23:50:00,
2013-01-18 18:51:00,149.5,99.9,30.29,West,276,0.0,0.0,90,0.00,,SKC,0.00,VWS V14.01,2013-01-18 23:51:00,
2013-01-18 18:53:00,149.5,99.9,30.29,West,276,0.0,0.0,90,0.00,,SKC,0.00,VWS V14.01,2013-01-18 23:53:00,
2013-01-18 18:54:00,149.5,99.9,30.29,West,276,0.0,0.0,90,0.00,,SKC,0.00,VWS V14.01,2013-01-18 23:54:00,
2013-01-18 18:55:00,149.5,99.9,30.29,West,276,0.0,0.0,90,0.00,,SKC,0.00,VWS V14.01,2013-01-18 23:55:00,
2013-01-18 18:56:00,149.5,99.9,30.29,West,276,0.0,0.0,90,0.00,,SKC,0.00,VWS V14.01,2013-01-18 23:56:00,
2013-01-18 18:58:00,149.5,99.9,30.29,West,276,0.0,0.0,91,0.00,,SKC,0.00,VWS V14.01,2013-01-18 23:58:00,
2013-01-18 18:59:00,149.5,99.9,30.29,West,276,0.0,0.0,91,0.00,,SKC,0.00,VWS V14.01,2013-01-18 23:59:00,
2013-01-18 19:01:00,149.5,99.9,30.29,West,276,0.0,0.0,91,0.00,,SKC,0.00,VWS V14.01,2013-01-19 00:01:00,
2013-01-18 19:02:00,149.5,99.9,30.29,West,276,0.0,0.0,91,0.00,,SKC,0.00,VWS V14.01,2013-01-19 00:02:00,
2013-01-18 19:03:00,149.5,99.9,30.29,West,276,0.0,0.0,91,0.00,,SKC,0.00,VWS V14.01,2013-01-19 00:03:00,
2013-01-18 19:04:00,149.5,99.9,30.29,West,276,0.0,0.0,92,0.00,,SKC,0.00,VWS V14.01,2013-01-19 00:04:00,
2013-01-18 19:06:00,149.5,99.9,30.29,West,276,0.0,0.0,92,0.00,,SKC,0.00,VWS V14.01,2013-01-19 00:06:00,
2013-01-18 19:07:00,149.5,99.9,30.29,West,276,0.0,0.0,92,0.00,,SKC,0.00,VWS V14.01,2013-01-19 00:07:00,
2013-01-18 19:08:00,149.5,99.9,30.29,West,276,0.0,0.0,92,0.00,,SKC,0.00,VWS V14.01,2013-01-19 00:08:00,
2013-01-18 19:09:00,149.5,99.9,30.29,West,276,0.0,0.0,92,0.00,,SKC,0.00,VWS V14.01,2013-01-19 00:09:00,
2013-01-18 19:11:00,149.5,99.9,30.29,West,276,0.0,0.0,92,0.00,,SKC,0.00,VWS V14.01,2013-01-19 00:11:00,
2013-01-18 19:12:00,149.5,99.9,30.29,West,276,0.0,0.0,92,0.00,,SKC,0.00,VWS V14.01,2013-01-19 00:12:00,
2013-01-18 19:13:00,149.5,99.9,30.29,West,276,0.0,0.0,93,0.00,,SKC,0.00,VWS V14.01,2013-01-19 00:13:00,
2013-01-18 19:14:00,149.5,99.9,30.29,West,276,0.0,0.0,93,0.00,,SKC,0.00,VWS V14.01,2013-01-19 00:14:00,
2013-01-18 19:16:00,149.5,99.9,30.30,West,276,0.0,0.0,93,0.00,,SKC,0.00,VWS V14.01,2013-01-19 00:16:00,
2013-01-18 19:17:00,149.5,99.9,30.30,West,276,0.0,0.0,93,0.00,,SKC,0.00,VWS V14.01,2013-01-19 00:17:00,
2013-01-18 19:19:00,149.5,99.9,30.30,West,276,0.0,0.0,94,0.00,,SKC,0.00,VWS V14.01,2013-01-19 00:19:00,
2013-01-18 19:21:00,149.5,99.9,30.30,West,276,0.0,0.0,94,0.00,,SKC,0.00,VWS V14.01,2013-01-19 00:21:00,
2013-01-18 19:22:00,149.5,99.9,30.30,West,276,0.0,0.0,94,0.00,,SKC,0.00,VWS V14.01,2013-01-19 00:22:00,
2013-01-18 19:24:00,149.5,99.9,30.30,West,276,0.0,0.0,94,0.00,,SKC,0.00,VWS V14.01,2013-01-19 00:24:00,
2013-01-18 19:26:00,149.5,99.9,30.30,West,276,0.0,0.0,94,0.00,,SKC,0.00,VWS V14.01,2013-01-19 00:26:00,
2013-01-18 19:27:00,149.5,99.9,30.30,West,276,0.0,0.0,94,0.00,,SKC,0.00,VWS V14.01,2013-01-19 00:27:00,
2013-01-18 19:29:00,149.5,99.9,30.30,West,276,0.0,0.0,94,0.00,,SKC,0.00,VWS V14.01,2013-01-19 00:29:00,
2013-01-18 19:30:00,149.5,99.9,30.30,West,276,0.0,0.0,94,0.00,,SKC,0.00,VWS V14.01,2013-01-19 00:30:00,
2013-01-18 19:32:00,149.5,99.9,30.30,West,276,0.0,0.0,95,0.00,,SKC,0.00,VWS V14.01,2013-01-19 00:32:00,
2013-01-18 19:34:00,149.5,99.9,30.30,West,276,0.0,0.0,95,0.00,,SKC,0.00,VWS V14.01,2013-01-19 00:34:00,
2013-01-18 19:35:00,149.5,99.9,30.29,West,276,0.0,0.0,95,0.00,,SKC,0.00,VWS V14.01,2013-01-19 00:35:00,
2013-01-18 19:37:00,149.5,99.9,30.29,West,276,0.0,0.0,95,0.00,,SKC,0.00,VWS V14.01,2013-01-19 00:37:00,
2013-01-18 19:38:00,149.5,99.9,30.29,West,276,0.0,0.0,95,0.00,,SKC,0.00,VWS V14.01,2013-01-19 00:38:00,
2013-01-18 19:39:00,149.5,99.9,30.29,West,276,0.0,0.0,95,0.00,,SKC,0.00,VWS V14.01,2013-01-19 00:39:00,
2013-01-18 19:40:00,149.5,99.9,30.29,West,276,0.0,0.0,95,0.00,,SKC,0.00,VWS V14.01,2013-01-19 00:40:00,
2013-01-18 19:42:00,149.5,99.9,30.29,West,276,0.0,0.0,95,0.00,,SKC,0.00,VWS V14.01,2013-01-19 00:42:00,
2013-01-18 19:43:00,149.5,99.9,30.29,West,276,0.0,0.0,95,0.00,,SKC,0.00,VWS V14.01,2013-01-19 00:43:00,
2013-01-18 19:44:00,149.5,99.9,30.29,West,276,0.0,0.0,95,0.00,,SKC,0.00,VWS V14.01,2013-01-19 00:44:00,
2013-01-18 19:45:00,149.5,99.9,30.29,West,276,0.0,0.0,95,0.00,,SKC,0.00,VWS V14.01,2013-01-19 00:45:00,
2013-01-18 19:47:00,149.5,99.9,30.29,West,276,0.0,0.0,95,0.00,,SKC,0.00,VWS V14.01,2013-01-19 00:47:00,
2013-01-18 19:49:00,149.5,99.9,30.29,West,276,0.0,0.0,95,0.00,,SKC,0.00,VWS V14.01,2013-01-19 00:49:00,
2013-01-18 19:50:00,149.5,99.9,30.29,West,276,0.0,0.0,95,0.00,,SKC,0.00,VWS V14.01,2013-01-19 00:50:00,
2013-01-18 19:52:00,149.5,99.9,30.29,West,276,0.0,0.0,95,0.00,,SKC,0.00,VWS V14.01,2013-01-19 00:52:00,
2013-01-18 19:54:00,149.5,99.9,30.29,West,276,0.0,0.0,95,0.00,,SKC,0.00,VWS V14.01,2013-01-19 00:54:00,
2013-01-18 19:55:00,149.5,99.9,30.29,West,276,0.0,0.0,96,0.00,,SKC,0.00,VWS V14.01,2013-01-19 00:55:00,
2013-01-18 19:57:00,149.5,99.9,30.29,West,276,0.0,0.0,96,0.00,,SKC,0.00,VWS V14.01,2013-01-19 00:57:00,
2013-01-18 19:59:00,149.5,99.9,30.29,West,276,0.0,0.0,96,0.00,,SKC,0.00,VWS V14.01,2013-01-19 00:59:00,
2013-01-18 20:00:00,149.4,99.9,30.29,West,276,0.0,0.0,96,0.00,,SKC,0.00,VWS V14.01,2013-01-19 01:00:00,
2013-01-18 20:02:00,149.5,99.9,30.29,West,276,0.0,0.0,96,0.00,,SKC,0.00,VWS V14.01,2013-01-19 01:02:00,
2013-01-18 20:04:00,149.5,99.9,30.29,West,276,0.0,0.0,96,0.00,,SKC,0.00,VWS V14.01,2013-01-19 01:04:00,
2013-01-18 20:05:00,149.5,99.9,30.29,West,276,0.0,0.0,96,0.00,,SKC,0.00,VWS V14.01,2013-01-19 01:05:00,
2013-01-18 20:07:00,149.5,99.9,30.29,West,276,0.0,0.0,96,0.00,,SKC,0.00,VWS V14.01,2013-01-19 01:07:00,
2013-01-18 20:09:00,149.4,99.9,30.29,West,276,0.0,0.0,96,0.00,,SKC,0.00,VWS V14.01,2013-01-19 01:09:00,
2013-01-18 20:10:00,149.5,99.9,30.29,West,276,0.0,0.0,96,0.00,,SKC,0.00,VWS V14.01,2013-01-19 01:10:00,
2013-01-18 20:12:00,149.4,99.9,30.29,West,276,0.0,0.0,96,0.00,,SKC,0.00,VWS V14.01,2013-01-19 01:12:00,
2013-01-18 20:14:00,149.4,99.9,30.29,West,276,0.0,0.0,96,0.00,,SKC,0.00,VWS V14.01,2013-01-19 01:14:00,
2013-01-18 20:15:00,149.4,99.9,30.29,West,276,0.0,0.0,97,0.00,,SKC,0.00,VWS V14.01,2013-01-19 01:15:00,
2013-01-18 20:17:00,149.3,99.9,30.29,West,276,0.0,0.0,97,0.00,,SKC,0.00,VWS V14.01,2013-01-19 01:17:00,
2013-01-18 20:19:00,149.4,99.9,30.29,West,276,0.0,0.0,97,0.00,,SKC,0.00,VWS V14.01,2013-01-19 01:19:00,
2013-01-18 20:20:00,149.4,99.9,30.29,West,276,0.0,0.0,97,0.00,,SKC,0.00,VWS V14.01,2013-01-19 01:20:00,
2013-01-18 20:23:00,149.5,99.9,30.29,West,276,0.0,0.0,97,0.00,,SKC,0.00,VWS V14.01,2013-01-19 01:23:00,
2013-01-18 20:24:00,149.4,99.9,30.29,West,276,0.0,0.0,97,0.00,,SKC,0.00,VWS V14.01,2013-01-19 01:24:00,
2013-01-18 20:25:00,149.4,99.9,30.29,West,276,0.0,0.0,97,0.00,,SKC,0.00,VWS V14.01,2013-01-19 01:25:00,
2013-01-18 20:26:00,149.4,99.9,30.29,West,276,0.0,0.0,97,0.00,,SKC,0.00,VWS V14.01,2013-01-19 01:26:00,
2013-01-18 20:28:00,149.4,99.9,30.29,West,276,0.0,0.0,97,0.00,,SKC,0.00,VWS V14.01,2013-01-19 01:28:00,
2013-01-18 20:29:00,149.4,99.9,30.30,West,276,0.0,0.0,97,0.00,,SKC,0.00,VWS V14.01,2013-01-19 01:29:00,
2013-01-18 20:30:00,149.4,99.9,30.30,West,276,0.0,0.0,97,0.00,,SKC,0.00,VWS V14.01,2013-01-19 01:30:00,
2013-01-18 20:31:00,149.3,99.9,30.29,West,276,0.0,0.0,98,0.00,,SKC,0.00,VWS V14.01,2013-01-19 01:31:00,
2013-01-18 20:33:00,149.4,99.9,30.30,West,276,0.0,0.0,98,0.00,,SKC,0.00,VWS V14.01,2013-01-19 01:33:00,
2013-01-18 20:34:00,149.4,99.9,30.30,West,276,0.0,0.0,98,0.00,,SKC,0.00,VWS V14.01,2013-01-19 01:34:00,
2013-01-18 20:35:00,149.3,99.9,30.30,West,276,0.0,0.0,98,0.00,,SKC,0.00,VWS V14.01,2013-01-19 01:35:00,
2013-01-18 20:36:00,149.4,99.9,30.29,West,276,0.0,0.0,98,0.00,,SKC,0.00,VWS V14.01,2013-01-19 01:36:00,
2013-01-18 20:38:00,149.4,99.9,30.29,West,276,0.0,0.0,98,0.00,,SKC,0.00,VWS V14.01,2013-01-19 01:38:00,
2013-01-18 20:40:00,149.4,99.9,30.29,West,276,0.0,0.0,98,0.00,,SKC,0.00,VWS V14.01,2013-01-19 01:40:00,
2013-01-18 20:41:00,149.4,99.9,30.30,West,276,0.0,0.0,98,0.00,,SKC,0.00,VWS V14.01,2013-01-19 01:41:00,
2013-01-18 20:43:00,149.3,99.9,30.29,West,276,0.0,0.0,98,0.00,,SKC,0.00,VWS V14.01,2013-01-19 01:43:00,
2013-01-18 20:45:00,149.4,99.9,30.30,West,276,0.0,0.0,98,0.00,,SKC,0.00,VWS V14.01,2013-01-19 01:45:00,
2013-01-18 20:46:00,149.4,99.9,30.29,West,276,0.0,0.0,98,0.00,,SKC,0.00,VWS V14.01,2013-01-19 01:46:00,
2013-01-18 20:48:00,149.3,99.9,30.29,West,276,0.0,0.0,98,0.00,,SKC,0.00,VWS V14.01,2013-01-19 01:48:00,
2013-01-18 20:50:00,149.4,99.9,30.30,West,276,0.0,0.0,98,0.00,,SKC,0.00,VWS V14.01,2013-01-19 01:50:00,
2013-01-18 20:51:00,149.4,99.9,30.30,West,276,0.0,0.0,98,0.00,,SKC,0.00,VWS V14.01,2013-01-19 01:51:00,
2013-01-18 20:52:00,149.4,99.9,30.30,West,276,0.0,0.0,98,0.00,,SKC,0.00,VWS V14.01,2013-01-19 01:52:00,
2013-01-18 20:53:00,149.4,99.9,30.30,West,276,0.0,0.0,98,0.00,,SKC,0.00,VWS V14.01,2013-01-19 01:53:00,
2013-01-18 20:55:00,149.4,99.9,30.29,West,276,0.0,0.0,98,0.00,,SKC,0.00,VWS V14.01,2013-01-19 01:55:00,
2013-01-18 20:56:00,149.4,99.9,30.29,West,276,0.0,0.0,98,0.00,,SKC,0.00,VWS V14.01,2013-01-19 01:56:00,
2013-01-18 20:57:00,149.4,99.9,30.29,West,276,0.0,0.0,98,0.00,,SKC,0.00,VWS V14.01,2013-01-19 01:57:00,
2013-01-18 20:58:00,149.4,99.9,30.29,West,276,0.0,0.0,98,0.00,,SKC,0.00,VWS V14.01,2013-01-19 01:58:00,
2013-01-18 21:00:00,149.4,99.9,30.30,West,276,0.0,0.0,98,0.00,,SKC,0.00,VWS V14.01,2013-01-19 02:00:00,
2013-01-18 21:01:00,149.4,99.9,30.29,West,276,0.0,0.0,98,0.00,,SKC,0.00,VWS V14.01,2013-01-19 02:01:00,
2013-01-18 21:02:00,149.4,99.9,30.29,West,276,0.0,0.0,98,0.00,,SKC,0.00,VWS V14.01,2013-01-19 02:02:00,
2013-01-18 21:03:00,149.4,99.9,30.29,West,276,0.0,0.0,98,0.00,,SKC,0.00,VWS V14.01,2013-01-19 02:03:00,
2013-01-18 21:06:00,149.4,99.9,30.29,West,276,0.0,0.0,98,0.00,,SKC,0.00,VWS V14.01,2013-01-19 02:06:00,
2013-01-18 21:07:00,149.3,99.9,30.29,West,276,0.0,0.0,98,0.00,,SKC,0.00,VWS V14.01,2013-01-19 02:07:00,
2013-01-18 21:08:00,149.3,99.9,30.29,West,276,0.0,0.0,98,0.00,,SKC,0.00,VWS V14.01,2013-01-19 02:08:00,
2013-01-18 21:11:00,149.3,99.9,30.29,West,276,0.0,0.0,98,0.00,,SKC,0.00,VWS V14.01,2013-01-19 02:11:00,
2013-01-18 21:12:00,149.4,99.9,30.29,West,276,0.0,0.0,99,0.00,,SKC,0.00,VWS V14.01,2013-01-19 02:12:00,
2013-01-18 21:13:00,149.4,99.9,30.29,West,276,0.0,0.0,99,0.00,,SKC,0.00,VWS V14.01,2013-01-19 02:13:00,
2013-01-18 21:16:00,149.3,99.9,30.29,West,276,0.0,0.0,99,0.00,,SKC,0.00,VWS V14.01,2013-01-19 02:16:00,
2013-01-18 21:17:00,149.4,99.9,30.29,West,276,0.0,0.0,99,0.00,,SKC,0.00,VWS V14.01,2013-01-19 02:17:00,
2013-01-18 21:18:00,149.3,99.9,30.29,West,276,0.0,0.0,99,0.00,,SKC,0.00,VWS V14.01,2013-01-19 02:18:00,
2013-01-18 21:21:00,149.4,99.9,30.29,West,276,0.0,0.0,99,0.00,,SKC,0.00,VWS V14.01,2013-01-19 02:21:00,
2013-01-18 21:22:00,149.3,99.9,30.29,West,276,0.0,0.0,99,0.00,,SKC,0.00,VWS V14.01,2013-01-19 02:22:00,
2013-01-18 21:23:00,149.3,99.9,30.29,West,276,0.0,0.0,99,0.00,,SKC,0.00,VWS V14.01,2013-01-19 02:23:00,
2013-01-18 21:27:00,149.4,99.9,30.29,West,276,0.0,0.0,99,0.00,,SKC,0.00,VWS V14.01,2013-01-19 02:27:00,
2013-01-18 21:28:00,149.4,99.9,30.29,West,276,0.0,0.0,99,0.00,,SKC,0.00,VWS V14.01,2013-01-19 02:28:00,
2013-01-18 21:32:00,149.3,99.9,30.29,West,276,0.0,0.0,99,0.00,,SKC,0.00,VWS V14.01,2013-01-19 02:32:00,
2013-01-18 21:33:00,149.3,99.9,30.29,West,276,0.0,0.0,100,0.00,,SKC,0.00,VWS V14.01,2013-01-19 02:33:00,
2013-01-18 21:37:00,149.4,99.9,30.29,West,276,0.0,0.0,100,0.00,,SKC,0.00,VWS V14.01,2013-01-19 02:37:00,
2013-01-18 21:38:00,149.3,99.9,30.29,West,276,0.0,0.0,100,0.00,,SKC,0.00,VWS V14.01,2013-01-19 02:38:00,
2013-01-18 21:42:00,149.3,99.9,30.29,West,276,0.0,0.0,100,0.00,,SKC,0.00,VWS V14.01,2013-01-19 02:42:00,
2013-01-18 21:43:00,149.3,99.9,30.29,West,276,0.0,0.0,100,0.00,,SKC,0.00,VWS V14.01,2013-01-19 02:43:00,
2013-01-18 21:44:00,149.3,99.9,30.29,West,276,0.0,0.0,100,0.00,,SKC,0.00,VWS V14.01,2013-01-19 02:44:00,
2013-01-18 21:47:00,149.3,99.9,30.29,West,276,0.0,0.0,100,0.00,,SKC,0.00,VWS V14.01,2013-01-19 02:47:00,
2013-01-18 21:48:00,149.4,99.9,30.29,West,276,0.0,0.0,100,0.00,,SKC,0.00,VWS V14.01,2013-01-19 02:48:00,
2013-01-18 21:49:00,149.3,99.9,30.29,West,276,0.0,0.0,100,0.00,,SKC,0.00,VWS V14.01,2013-01-19 02:49:00,
2013-01-18 21:52:00,149.3,99.9,30.29,WNW,284,1.4,1.4,100,0.00,,SKC,0.00,VWS V14.01,2013-01-19 02:52:00,
2013-01-18 21:53:00,149.3,99.9,30.29,WNW,285,1.8,1.9,100,0.00,,SKC,0.00,VWS V14.01,2013-01-19 02:53:00,
2013-01-18 21:54:00,149.3,99.9,30.29,WNW,287,1.2,1.5,100,0.00,,SKC,0.00,VWS V14.01,2013-01-19 02:54:00,
2013-01-18 21:57:00,149.4,99.9,30.29,West,262,0.0,0.0,100,0.00,,SKC,0.00,VWS V14.01,2013-01-19 02:57:00,
2013-01-18 21:58:00,149.4,99.9,30.29,West,262,0.0,0.0,100,0.00,,SKC,0.00,VWS V14.01,2013-01-19 02:58:00,
2013-01-18 21:59:00,149.4,99.9,30.29,West,262,0.0,0.0,100,0.00,,SKC,0.00,VWS V14.01,2013-01-19 02:59:00,
2013-01-18 22:02:00,149.4,99.9,30.29,West,262,0.0,0.0,100,0.00,,SKC,0.00,VWS V14.01,2013-01-19 03:02:00,
2013-01-18 22:03:00,149.4,99.9,30.29,West,262,0.0,0.0,100,0.00,,SKC,0.00,VWS V14.01,2013-01-19 03:03:00,
2013-01-18 22:04:00,149.3,99.9,30.29,West,262,0.0,0.0,100,0.00,,SKC,0.00,VWS V14.01,2013-01-19 03:04:00,
2013-01-18 22:07:00,149.4,99.9,30.29,West,262,0.0,0.0,100,0.00,,SKC,0.00,VWS V14.01,2013-01-19 03:07:00,
2013-01-18 22:08:00,149.4,99.9,30.29,West,262,0.0,0.0,100,0.00,,SKC,0.00,VWS V14.01,2013-01-19 03:08:00,
2013-01-18 22:10:00,149.4,99.9,30.29,West,262,0.0,0.0,100,0.00,,SKC,0.00,VWS V14.01,2013-01-19 03:10:00,
2013-01-18 22:12:00,149.4,99.9,30.29,West,281,1.3,2.0,100,0.00,,SKC,0.00,VWS V14.01,2013-01-19 03:12:00,
2013-01-18 22:13:00,149.4,99.9,30.29,West,280,0.7,1.5,100,0.00,,SKC,0.00,VWS V14.01,2013-01-19 03:13:00,
2013-01-18 22:15:00,149.4,99.9,30.28,WNW,287,0.9,1.2,100,0.00,,SKC,0.00,VWS V14.01,2013-01-19 03:15:00,
2013-01-18 22:17:00,149.4,99.9,30.28,WNW,290,1.2,1.5,100,0.00,,SKC,0.00,VWS V14.01,2013-01-19 03:17:00,
2013-01-18 22:18:00,149.4,99.9,30.28,West,281,0.9,1.7,100,0.00,,SKC,0.00,VWS V14.01,2013-01-19 03:18:00,
2013-01-18 22:20:00,149.3,99.9,30.28,WNW,283,0.0,0.0,100,0.00,,SKC,0.00,VWS V14.01,2013-01-19 03:20:00,
2013-01-18 22:22:00,149.4,99.9,30.28,WNW,283,0.0,0.0,100,0.00,,SKC,0.00,VWS V14.01,2013-01-19 03:22:00,
2013-01-18 22:23:00,149.4,99.9,30.28,WNW,283,0.0,0.0,100,0.00,,SKC,0.00,VWS V14.01,2013-01-19 03:23:00,
2013-01-18 22:25:00,149.4,99.9,30.28,WNW,283,0.0,0.0,100,0.00,,SKC,0.00,VWS V14.01,2013-01-19 03:25:00,
2013-01-18 22:27:00,149.4,99.9,30.28,WNW,283,0.0,0.0,100,0.00,,SKC,0.00,VWS V14.01,2013-01-19 03:27:00,
2013-01-18 22:28:00,149.4,99.9,30.28,WNW,283,0.0,0.0,100,0.00,,SKC,0.00,VWS V14.01,2013-01-19 03:28:00,
2013-01-18 22:30:00,149.4,99.9,30.28,WNW,283,0.0,0.0,100,0.00,,SKC,0.00,VWS V14.01,2013-01-19 03:30:00,
2013-01-18 22:33:00,149.4,99.9,30.28,WNW,283,0.0,0.0,100,0.00,,SKC,0.00,VWS V14.01,2013-01-19 03:33:00,
2013-01-18 22:35:00,149.3,99.9,30.28,WNW,283,0.0,0.0,100,0.00,,SKC,0.00,VWS V14.01,2013-01-19 03:35:00,
2013-01-18 22:38:00,149.4,99.9,30.28,WNW,283,0.0,0.0,100,0.00,,SKC,0.00,VWS V14.01,2013-01-19 03:38:00,
2013-01-18 22:40:00,149.3,99.9,30.28,WNW,283,0.0,0.0,100,0.00,,SKC,0.00,VWS V14.01,2013-01-19 03:40:00,
2013-01-18 22:43:00,149.4,99.9,30.28,WNW,283,0.0,0.0,100,0.00,,SKC,0.00,VWS V14.01,2013-01-19 03:43:00,
2013-01-18 22:44:00,149.3,99.9,30.28,WNW,283,0.0,0.0,100,0.00,,SKC,0.00,VWS V14.01,2013-01-19 03:44:00,
2013-01-18 22:45:00,149.4,99.9,30.28,WNW,283,0.0,0.0,100,0.00,,SKC,0.00,VWS V14.01,2013-01-19 03:45:00,
2013-01-18 22:48:00,149.3,99.9,30.28,WNW,283,0.0,0.0,100,0.00,,SKC,0.00,VWS V14.01,2013-01-19 03:48:00,
2013-01-18 22:49:00,149.3,99.9,30.28,WNW,283,0.0,0.0,100,0.00,,SKC,0.00,VWS V14.01,2013-01-19 03:49:00,
2013-01-18 22:50:00,149.3,99.9,30.28,WNW,283,0.0,0.0,100,0.00,,SKC,0.00,VWS V14.01,2013-01-19 03:50:00,
2013-01-18 22:53:00,149.3,99.9,30.28,WNW,283,0.0,0.0,100,0.00,,SKC,0.00,VWS V14.01,2013-01-19 03:53:00,
2013-01-18 22:54:00,149.3,99.9,30.28,WNW,283,0.0,0.0,100,0.00,,SKC,0.00,VWS V14.01,2013-01-19 03:54:00,
2013-01-18 22:55:00,149.4,99.9,30.28,WNW,283,0.0,0.0,100,0.00,,SKC,0.00,VWS V14.01,2013-01-19 03:55:00,
2013-01-18 22:58:00,149.3,99.9,30.28,WNW,283,0.0,0.0,100,0.00,,SKC,0.00,VWS V14.01,2013-01-19 03:58:00,
2013-01-18 22:59:00,149.4,99.9,30.28,WNW,283,0.0,0.0,100,0.00,,SKC,0.00,VWS V14.01,2013-01-19 03:59:00,
2013-01-18 23:00:00,149.3,99.9,30.28,WNW,283,0.0,0.0,100,0.00,,SKC,0.00,VWS V14.01,2013-01-19 04:00:00,
2013-01-18 23:03:00,149.4,99.9,30.28,WNW,283,0.0,0.0,100,0.00,,SKC,0.00,VWS V14.01,2013-01-19 04:03:00,
2013-01-18 23:04:00,149.3,99.9,30.28,WNW,283,0.0,0.0,100,0.00,,SKC,0.00,VWS V14.01,2013-01-19 04:04:00,
2013-01-18 23:05:00,149.3,99.9,30.28,WNW,283,0.0,0.0,100,0.00,,SKC,0.00,VWS V14.01,2013-01-19 04:05:00,
2013-01-18 23:06:00,149.3,99.9,30.28,WNW,283,0.0,0.0,100,0.00,,SKC,0.00,VWS V14.01,2013-01-19 04:06:00,
2013-01-18 23:09:00,149.4,99.9,30.28,WNW,283,0.0,0.0,100,0.00,,SKC,0.00,VWS V14.01,2013-01-19 04:09:00,
2013-01-18 23:10:00,149.3,99.9,30.28,WNW,283,0.0,0.0,100,0.00,,SKC,0.00,VWS V14.01,2013-01-19 04:10:00,
2013-01-18 23:11:00,149.3,99.9,30.28,WNW,283,0.0,0.0,100,0.00,,SKC,0.00,VWS V14.01,2013-01-19 04:11:00,
2013-01-18 23:14:00,149.3,99.9,30.28,WNW,283,0.0,0.0,100,0.00,,SKC,0.00,VWS V14.01,2013-01-19 04:14:00,
2013-01-18 23:15:00,149.3,99.9,30.28,WNW,283,0.0,0.0,100,0.00,,SKC,0.00,VWS V14.01,2013-01-19 04:15:00,
2013-01-18 23:16:00,149.4,99.9,30.28,WNW,283,0.0,0.0,100,0.00,,SKC,0.00,VWS V14.01,2013-01-19 04:16:00,
2013-01-18 23:19:00,149.3,99.9,30.28,WNW,283,0.0,0.0,100,0.00,,SKC,0.00,VWS V14.01,2013-01-19 04:19:00,
2013-01-18 23:20:00,149.3,99.9,30.28,WNW,283,0.0,0.0,100,0.00,,SKC,0.00,VWS V14.01,2013-01-19 04:20:00,
2013-01-18 23:22:00,149.3,99.9,30.28,WNW,283,0.0,0.0,100,0.00,,SKC,0.00,VWS V14.01,2013-01-19 04:22:00,
2013-01-18 23:24:00,149.4,99.9,30.28,WNW,283,0.0,0.0,100,0.00,,SKC,0.00,VWS V14.01,2013-01-19 04:24:00,
2013-01-18 23:26:00,149.3,99.9,30.28,WNW,283,0.0,0.0,100,0.00,,SKC,0.00,VWS V14.01,2013-01-19 04:26:00,
2013-01-18 23:27:00,149.4,99.9,30.28,WNW,283,0.0,0.0,100,0.00,,SKC,0.00,VWS V14.01,2013-01-19 04:27:00,
2013-01-18 23:29:00,149.4,99.9,30.28,WNW,283,0.0,0.0,100,0.00,,SKC,0.00,VWS V14.01,2013-01-19 04:29:00,
2013-01-18 23:31:00,149.3,99.9,30.27,WNW,283,0.0,0.0,100,0.00,,SKC,0.00,VWS V14.01,2013-01-19 04:31:00,
2013-01-18 23:32:00,149.4,99.9,30.27,WNW,283,0.0,0.0,100,0.00,,SKC,0.00,VWS V14.01,2013-01-19 04:32:00,
2013-01-18 23:34:00,149.3,99.9,30.28,WNW,283,0.0,0.0,100,0.00,,SKC,0.00,VWS V14.01,2013-01-19 04:34:00,
2013-01-18 23:36:00,149.3,99.9,30.27,WNW,283,0.0,0.0,100,0.00,,SKC,0.00,VWS V14.01,2013-01-19 04:36:00,
2013-01-18 23:37:00,149.4,99.9,30.27,WNW,283,0.0,0.0,100,0.00,,SKC,0.00,VWS V14.01,2013-01-19 04:37:00,
2013-01-18 23:39:00,149.4,99.9,30.27,WNW,283,0.0,0.0,100,0.00,,SKC,0.00,VWS V14.01,2013-01-19 04:39:00,
2013-01-18 23:41:00,149.3,99.9,30.27,WNW,283,0.0,0.0,100,0.00,,SKC,0.00,VWS V14.01,2013-01-19 04:41:00,
2013-01-18 23:42:00,149.4,99.9,30.27,WNW,283,0.0,0.0,100,0.00,,SKC,0.00,VWS V14.01,2013-01-19 04:42:00,
2013-01-18 23:44:00,149.3,99.9,30.27,WNW,283,0.0,0.0,100,0.00,,SKC,0.00,VWS V14.01,2013-01-19 04:44:00,
2013-01-18 23:46:00,149.4,99.9,30.27,WNW,283,0.0,0.0,100,0.00,,SKC,0.00,VWS V14.01,2013-01-19 04:46:00,
2013-01-18 23:47:00,149.4,99.9,30.27,WNW,283,0.0,0.0,100,0.00,,SKC,0.00,VWS V14.01,2013-01-19 04:47:00,
2013-01-18 23:49:00,149.4,99.9,30.27,WNW,283,0.0,0.0,100,0.00,,SKC,0.00,VWS V14.01,2013-01-19 04:49:00,
2013-01-18 23:51:00,149.4,99.9,30.27,WNW,283,0.0,0.0,100,0.00,,SKC,0.00,VWS V14.01,2013-01-19 04:51:00,
2013-01-18 23:52:00,149.4,99.9,30.27,WNW,283,0.0,0.0,100,0.00,,SKC,0.00,VWS V14.01,2013-01-19 04:52:00,
2013-01-18 23:54:00,149.4,99.9,30.27,WNW,285,1.9,2.5,100,0.00,,SKC,0.00,VWS V14.01,2013-01-19 04:54:00,